| State | Oklahoma | Latest | High (1660 cfs) | |
| River | Mountain Fork River | Rating | Observed | Estimated |
| Updated | 2026-05-07 2:30 (53 minutes ago) | Flood - The river is flooding. Obstacles can be treacherous or deadly. The river should be avoided at this stage for casual trips and definitely for the inexperienced. Trips should be attempted only with protective gear and equipment.Flood | (none) | 6184 |
| Discharge | 1660 cfs (median: 1340 cfs) | High - The river is high and potentially dangerous, especially for the young and / or inexperienced. Normal stream obstacles are sometimes difficult to navigate. Extended distances can be attempted, but canoe travel may not be advisable.High | (none) | 1052 |
| Height | 3.33 feet | Good - Conditions are ideal for a canoe or kayak. Boats typically will drag on fewer than one-quarter of riffles, if at all, and portages are unnecessary or rare. Normal float lengths can be attempted without a problem.Good | (none) | 754 |
| Trend | Falling (rising over 24 hours) | Low - River is low but can still be floated. Some riffles are okay but most come with significant dragging and might need a portage. Float lengths should be reduced to accommodate low flow, dragging, and portages.Low | (none) | 708 |
| USGS | USGS Site ( Duck Duck Go Maps) | Poor - River is too low to float comfortably. Most or all riffles will drag or must be portaged and some obstacles (such as slick shelf rock) cause undue problems. Avoid the river at this stage for casual paddling trips.Poor | (none) | 198 |
A total of 1 rows are displayed.
| Miles | 3.2 |
| Trips | 1 |
| People | 2 |
| Dates | 1 |
| Years | 1 |
| Months | 1 |
| Rows | 1 |
| Sources | 1 |
BLG - Bluegill
CCF - Channel Catfish
CP - Chain Pickerel
FWD - Freshwater Drum
GSF - Green Sunfish
KSB - Kentucky Spotted Bass
LMB - Largemouth Bass
LSF - Longear Sunfish
RB - Rock Bass / Goggle Eye
RSF - Redear Sunfish
RT - Rainbow Trout
SMB - Smallmouth Bass
WB - White Bass
WF - Whitefish
WL - WalleyeThe classic River Trips application is still available for use. It is updated with the new system using a data retrofit. It is no longer maintained. The original River Trips application is no longer updated (as of 1 Dec 2016) but can be checked for errors or for the condition of the data before it was converted to the new system.
| Observation | Height | Discharge | Maximum Discharge | Minimum Discharge | Mean Discharge | P05 | P10 | P20 | P25 | P50 (Median) | P75 | P80 | P90 | P95 |
|---|---|---|---|---|---|---|---|---|---|---|---|---|---|---|
| 2026-05-07 02:30 | 3.33 | 1660 | 7070 (2015) | 140 (2006) | 2180 | 156 | 186 | 263 | 345 | 1340 | 3530 | 4320 | 5890 | 6530 |
| 2026-05-07 01:30 | 3.52 | 1860 | 7070 (2015) | 140 (2006) | 2180 | 156 | 186 | 263 | 345 | 1340 | 3530 | 4320 | 5890 | 6530 |
| 2026-05-07 00:30 | 3.66 | 2010 | 7070 (2015) | 140 (2006) | 2180 | 156 | 186 | 263 | 345 | 1340 | 3530 | 4320 | 5890 | 6530 |
| 2026-05-06 23:30 | 3.51 | 1850 | 7070 (2015) | 140 (2006) | 2180 | 156 | 186 | 263 | 345 | 1340 | 3530 | 4320 | 5890 | 6530 |
| 2026-05-06 22:30 | 2.64 | 1020 | 7870 (1973) | 143 (2006) | 2080 | 174 | 185 | 258 | 383 | 1410 | 3060 | 3910 | 5250 | 6970 |
| 2026-05-06 21:30 | 1.53 | 374 | 7870 (1973) | 143 (2006) | 2080 | 174 | 185 | 258 | 383 | 1410 | 3060 | 3910 | 5250 | 6970 |
| 2026-05-06 20:30 | 1.32 | 300 | 7870 (1973) | 143 (2006) | 2080 | 174 | 185 | 258 | 383 | 1410 | 3060 | 3910 | 5250 | 6970 |
| 2026-05-06 19:30 | 1.34 | 307 | 7870 (1973) | 143 (2006) | 2080 | 174 | 185 | 258 | 383 | 1410 | 3060 | 3910 | 5250 | 6970 |
| 2026-05-06 18:30 | 1.38 | 320 | 7870 (1973) | 143 (2006) | 2080 | 174 | 185 | 258 | 383 | 1410 | 3060 | 3910 | 5250 | 6970 |
| 2026-05-06 17:30 | 1.42 | 334 | 7870 (1973) | 143 (2006) | 2080 | 174 | 185 | 258 | 383 | 1410 | 3060 | 3910 | 5250 | 6970 |
| 2026-05-06 16:30 | 1.46 | 349 | 7870 (1973) | 143 (2006) | 2080 | 174 | 185 | 258 | 383 | 1410 | 3060 | 3910 | 5250 | 6970 |
| 2026-05-06 15:30 | 1.51 | 367 | 7870 (1973) | 143 (2006) | 2080 | 174 | 185 | 258 | 383 | 1410 | 3060 | 3910 | 5250 | 6970 |
| 2026-05-06 14:30 | 1.57 | 390 | 7870 (1973) | 143 (2006) | 2080 | 174 | 185 | 258 | 383 | 1410 | 3060 | 3910 | 5250 | 6970 |
| 2026-05-06 13:30 | 1.63 | 413 | 7870 (1973) | 143 (2006) | 2080 | 174 | 185 | 258 | 383 | 1410 | 3060 | 3910 | 5250 | 6970 |
| 2026-05-06 12:30 | 1.69 | 438 | 7870 (1973) | 143 (2006) | 2080 | 174 | 185 | 258 | 383 | 1410 | 3060 | 3910 | 5250 | 6970 |
| 2026-05-06 11:30 | 1.74 | 459 | 7870 (1973) | 143 (2006) | 2080 | 174 | 185 | 258 | 383 | 1410 | 3060 | 3910 | 5250 | 6970 |
| 2026-05-06 10:30 | 1.82 | 494 | 7870 (1973) | 143 (2006) | 2080 | 174 | 185 | 258 | 383 | 1410 | 3060 | 3910 | 5250 | 6970 |
| 2026-05-06 09:30 | 1.90 | 532 | 7870 (1973) | 143 (2006) | 2080 | 174 | 185 | 258 | 383 | 1410 | 3060 | 3910 | 5250 | 6970 |
| 2026-05-06 08:30 | 2.00 | 582 | 7870 (1973) | 143 (2006) | 2080 | 174 | 185 | 258 | 383 | 1410 | 3060 | 3910 | 5250 | 6970 |
| 2026-05-06 07:30 | 2.10 | 638 | 7870 (1973) | 143 (2006) | 2080 | 174 | 185 | 258 | 383 | 1410 | 3060 | 3910 | 5250 | 6970 |
| 2026-05-06 06:30 | 2.21 | 705 | 7870 (1973) | 143 (2006) | 2080 | 174 | 185 | 258 | 383 | 1410 | 3060 | 3910 | 5250 | 6970 |
| 2026-05-06 05:30 | 2.33 | 786 | 7870 (1973) | 143 (2006) | 2080 | 174 | 185 | 258 | 383 | 1410 | 3060 | 3910 | 5250 | 6970 |
| 2026-05-06 04:30 | 2.47 | 888 | 7870 (1973) | 143 (2006) | 2080 | 174 | 185 | 258 | 383 | 1410 | 3060 | 3910 | 5250 | 6970 |
| 2026-05-06 03:30 | 2.62 | 1010 | 7870 (1973) | 143 (2006) | 2080 | 174 | 185 | 258 | 383 | 1410 | 3060 | 3910 | 5250 | 6970 |
| 2026-05-06 02:30 | 2.77 | 1130 | 7870 (1973) | 143 (2006) | 2080 | 174 | 185 | 258 | 383 | 1410 | 3060 | 3910 | 5250 | 6970 |
| 2026-05-06 01:30 | 2.94 | 1280 | 7870 (1973) | 143 (2006) | 2080 | 174 | 185 | 258 | 383 | 1410 | 3060 | 3910 | 5250 | 6970 |
| 2026-05-06 00:30 | 3.12 | 1450 | 7870 (1973) | 143 (2006) | 2080 | 174 | 185 | 258 | 383 | 1410 | 3060 | 3910 | 5250 | 6970 |
| 2026-05-05 23:30 | 3.28 | 1610 | 7870 (1973) | 143 (2006) | 2080 | 174 | 185 | 258 | 383 | 1410 | 3060 | 3910 | 5250 | 6970 |
| 2026-05-05 22:30 | 3.38 | 1710 | 7850 (1973) | 94 (1996) | 1930 | 143 | 173 | 243 | 292 | 1130 | 2910 | 3360 | 5280 | 7060 |
| 2026-05-05 21:30 | 3.22 | 1550 | 7850 (1973) | 94 (1996) | 1930 | 143 | 173 | 243 | 292 | 1130 | 2910 | 3360 | 5280 | 7060 |
| 2026-05-05 20:30 | 2.50 | 911 | 7850 (1973) | 94 (1996) | 1930 | 143 | 173 | 243 | 292 | 1130 | 2910 | 3360 | 5280 | 7060 |
| 2026-05-05 19:30 | 1.80 | 485 | 7850 (1973) | 94 (1996) | 1930 | 143 | 173 | 243 | 292 | 1130 | 2910 | 3360 | 5280 | 7060 |
| 2026-05-05 18:30 | 1.65 | 421 | 7850 (1973) | 94 (1996) | 1930 | 143 | 173 | 243 | 292 | 1130 | 2910 | 3360 | 5280 | 7060 |
| 2026-05-05 17:30 | 1.70 | 442 | 7850 (1973) | 94 (1996) | 1930 | 143 | 173 | 243 | 292 | 1130 | 2910 | 3360 | 5280 | 7060 |
| 2026-05-05 16:30 | 1.77 | 472 | 7850 (1973) | 94 (1996) | 1930 | 143 | 173 | 243 | 292 | 1130 | 2910 | 3360 | 5280 | 7060 |
| 2026-05-05 15:30 | 1.85 | 508 | 7850 (1973) | 94 (1996) | 1930 | 143 | 173 | 243 | 292 | 1130 | 2910 | 3360 | 5280 | 7060 |
| 2026-05-05 14:30 | 1.93 | 547 | 7850 (1973) | 94 (1996) | 1930 | 143 | 173 | 243 | 292 | 1130 | 2910 | 3360 | 5280 | 7060 |
| 2026-05-05 13:30 | 2.00 | 582 | 7850 (1973) | 94 (1996) | 1930 | 143 | 173 | 243 | 292 | 1130 | 2910 | 3360 | 5280 | 7060 |
| 2026-05-05 12:30 | 2.15 | 668 | 7850 (1973) | 94 (1996) | 1930 | 143 | 173 | 243 | 292 | 1130 | 2910 | 3360 | 5280 | 7060 |
| 2026-05-05 11:30 | 2.24 | 725 | 7850 (1973) | 94 (1996) | 1930 | 143 | 173 | 243 | 292 | 1130 | 2910 | 3360 | 5280 | 7060 |
| 2026-05-05 10:30 | 2.37 | 814 | 7850 (1973) | 94 (1996) | 1930 | 143 | 173 | 243 | 292 | 1130 | 2910 | 3360 | 5280 | 7060 |
| 2026-05-05 09:30 | 2.52 | 926 | 7850 (1973) | 94 (1996) | 1930 | 143 | 173 | 243 | 292 | 1130 | 2910 | 3360 | 5280 | 7060 |
| 2026-05-05 08:30 | 2.65 | 1030 | 7850 (1973) | 94 (1996) | 1930 | 143 | 173 | 243 | 292 | 1130 | 2910 | 3360 | 5280 | 7060 |
| 2026-05-05 07:30 | 2.83 | 1180 | 7850 (1973) | 94 (1996) | 1930 | 143 | 173 | 243 | 292 | 1130 | 2910 | 3360 | 5280 | 7060 |
| 2026-05-05 06:30 | 3.01 | 1340 | 7850 (1973) | 94 (1996) | 1930 | 143 | 173 | 243 | 292 | 1130 | 2910 | 3360 | 5280 | 7060 |
| 2026-05-05 05:30 | 3.20 | 1530 | 7850 (1973) | 94 (1996) | 1930 | 143 | 173 | 243 | 292 | 1130 | 2910 | 3360 | 5280 | 7060 |
| 2026-05-05 04:30 | 3.42 | 1750 | 7850 (1973) | 94 (1996) | 1930 | 143 | 173 | 243 | 292 | 1130 | 2910 | 3360 | 5280 | 7060 |
| 2026-05-05 03:30 | 3.64 | 1990 | 7850 (1973) | 94 (1996) | 1930 | 143 | 173 | 243 | 292 | 1130 | 2910 | 3360 | 5280 | 7060 |
| 2026-05-05 02:30 | 3.87 | 2250 | 7850 (1973) | 94 (1996) | 1930 | 143 | 173 | 243 | 292 | 1130 | 2910 | 3360 | 5280 | 7060 |
| 2026-05-05 01:30 | 4.11 | 2530 | 7850 (1973) | 94 (1996) | 1930 | 143 | 173 | 243 | 292 | 1130 | 2910 | 3360 | 5280 | 7060 |
| 2026-05-05 00:30 | 4.32 | 2780 | 7850 (1973) | 94 (1996) | 1930 | 143 | 173 | 243 | 292 | 1130 | 2910 | 3360 | 5280 | 7060 |
| 2026-05-04 23:30 | 4.40 | 2870 | 7850 (1973) | 94 (1996) | 1930 | 143 | 173 | 243 | 292 | 1130 | 2910 | 3360 | 5280 | 7060 |
| 2026-05-04 22:30 | 4.09 | 2510 | 8110 (1973) | 101 (1998) | 1900 | 140 | 199 | 365 | 412 | 950 | 3160 | 3410 | 4650 | 6600 |
| 2026-05-04 21:30 | 2.88 | 1220 | 8110 (1973) | 101 (1998) | 1900 | 140 | 199 | 365 | 412 | 950 | 3160 | 3410 | 4650 | 6600 |
| 2026-05-04 20:30 | 1.37 | 317 | 8110 (1973) | 101 (1998) | 1900 | 140 | 199 | 365 | 412 | 950 | 3160 | 3410 | 4650 | 6600 |
| 2026-05-04 19:30 | 0.85 | 166 | 8110 (1973) | 101 (1998) | 1900 | 140 | 199 | 365 | 412 | 950 | 3160 | 3410 | 4650 | 6600 |
| 2026-05-04 18:30 | 0.81 | 156 | 8110 (1973) | 101 (1998) | 1900 | 140 | 199 | 365 | 412 | 950 | 3160 | 3410 | 4650 | 6600 |
| 2026-05-04 17:30 | 0.82 | 158 | 8110 (1973) | 101 (1998) | 1900 | 140 | 199 | 365 | 412 | 950 | 3160 | 3410 | 4650 | 6600 |
| 2026-05-04 16:30 | 0.81 | 156 | 8110 (1973) | 101 (1998) | 1900 | 140 | 199 | 365 | 412 | 950 | 3160 | 3410 | 4650 | 6600 |
| 2026-05-04 15:30 | 0.81 | 156 | 8110 (1973) | 101 (1998) | 1900 | 140 | 199 | 365 | 412 | 950 | 3160 | 3410 | 4650 | 6600 |
| 2026-05-04 14:30 | 0.81 | 156 | 8110 (1973) | 101 (1998) | 1900 | 140 | 199 | 365 | 412 | 950 | 3160 | 3410 | 4650 | 6600 |
| 2026-05-04 13:30 | 0.83 | 161 | 8110 (1973) | 101 (1998) | 1900 | 140 | 199 | 365 | 412 | 950 | 3160 | 3410 | 4650 | 6600 |
| 2026-05-04 12:30 | 0.87 | 171 | 8110 (1973) | 101 (1998) | 1900 | 140 | 199 | 365 | 412 | 950 | 3160 | 3410 | 4650 | 6600 |
| 2026-05-04 11:30 | 0.83 | 161 | 8110 (1973) | 101 (1998) | 1900 | 140 | 199 | 365 | 412 | 950 | 3160 | 3410 | 4650 | 6600 |
| 2026-05-04 10:30 | 0.87 | 171 | 8110 (1973) | 101 (1998) | 1900 | 140 | 199 | 365 | 412 | 950 | 3160 | 3410 | 4650 | 6600 |
| 2026-05-04 09:30 | 0.87 | 171 | 8110 (1973) | 101 (1998) | 1900 | 140 | 199 | 365 | 412 | 950 | 3160 | 3410 | 4650 | 6600 |
| 2026-05-04 08:30 | 0.87 | 171 | 8110 (1973) | 101 (1998) | 1900 | 140 | 199 | 365 | 412 | 950 | 3160 | 3410 | 4650 | 6600 |
| 2026-05-04 07:30 | 0.87 | 171 | 8110 (1973) | 101 (1998) | 1900 | 140 | 199 | 365 | 412 | 950 | 3160 | 3410 | 4650 | 6600 |
| 2026-05-04 06:30 | 0.87 | 171 | 8110 (1973) | 101 (1998) | 1900 | 140 | 199 | 365 | 412 | 950 | 3160 | 3410 | 4650 | 6600 |
| 2026-05-04 05:30 | 0.87 | 171 | 8110 (1973) | 101 (1998) | 1900 | 140 | 199 | 365 | 412 | 950 | 3160 | 3410 | 4650 | 6600 |
| 2026-05-04 04:30 | 0.87 | 171 | 8110 (1973) | 101 (1998) | 1900 | 140 | 199 | 365 | 412 | 950 | 3160 | 3410 | 4650 | 6600 |
| 2026-05-04 03:30 | 0.87 | 171 | 8110 (1973) | 101 (1998) | 1900 | 140 | 199 | 365 | 412 | 950 | 3160 | 3410 | 4650 | 6600 |
| 2026-05-04 02:30 | 0.87 | 171 | 8110 (1973) | 101 (1998) | 1900 | 140 | 199 | 365 | 412 | 950 | 3160 | 3410 | 4650 | 6600 |
| 2026-05-04 01:30 | 0.87 | 171 | 8110 (1973) | 101 (1998) | 1900 | 140 | 199 | 365 | 412 | 950 | 3160 | 3410 | 4650 | 6600 |
| 2026-05-04 00:30 | 0.87 | 171 | 8110 (1973) | 101 (1998) | 1900 | 140 | 199 | 365 | 412 | 950 | 3160 | 3410 | 4650 | 6600 |
| 2026-05-03 23:30 | 0.87 | 171 | 8110 (1973) | 101 (1998) | 1900 | 140 | 199 | 365 | 412 | 950 | 3160 | 3410 | 4650 | 6600 |
| 2026-05-03 22:30 | 0.87 | 171 | 8200 (1973) | 98 (1996) | 1860 | 127 | 195 | 315 | 469 | 1230 | 2540 | 3320 | 4730 | 6170 |
| 2026-05-03 21:30 | 0.86 | 168 | 8200 (1973) | 98 (1996) | 1860 | 127 | 195 | 315 | 469 | 1230 | 2540 | 3320 | 4730 | 6170 |
| 2026-05-03 20:30 | 0.87 | 171 | 8200 (1973) | 98 (1996) | 1860 | 127 | 195 | 315 | 469 | 1230 | 2540 | 3320 | 4730 | 6170 |
| 2026-05-03 19:30 | 0.87 | 171 | 8200 (1973) | 98 (1996) | 1860 | 127 | 195 | 315 | 469 | 1230 | 2540 | 3320 | 4730 | 6170 |
| 2026-05-03 18:30 | 0.88 | 174 | 8200 (1973) | 98 (1996) | 1860 | 127 | 195 | 315 | 469 | 1230 | 2540 | 3320 | 4730 | 6170 |
| 2026-05-03 17:30 | 0.89 | 177 | 8200 (1973) | 98 (1996) | 1860 | 127 | 195 | 315 | 469 | 1230 | 2540 | 3320 | 4730 | 6170 |
| 2026-05-03 16:30 | 0.88 | 174 | 8200 (1973) | 98 (1996) | 1860 | 127 | 195 | 315 | 469 | 1230 | 2540 | 3320 | 4730 | 6170 |
| 2026-05-03 15:30 | 0.89 | 177 | 8200 (1973) | 98 (1996) | 1860 | 127 | 195 | 315 | 469 | 1230 | 2540 | 3320 | 4730 | 6170 |
| 2026-05-03 14:30 | 0.90 | 180 | 8200 (1973) | 98 (1996) | 1860 | 127 | 195 | 315 | 469 | 1230 | 2540 | 3320 | 4730 | 6170 |
| 2026-05-03 13:30 | 0.90 | 180 | 8200 (1973) | 98 (1996) | 1860 | 127 | 195 | 315 | 469 | 1230 | 2540 | 3320 | 4730 | 6170 |
| 2026-05-03 12:30 | 0.87 | 171 | 8200 (1973) | 98 (1996) | 1860 | 127 | 195 | 315 | 469 | 1230 | 2540 | 3320 | 4730 | 6170 |
| 2026-05-03 11:30 | 0.91 | 182 | 8200 (1973) | 98 (1996) | 1860 | 127 | 195 | 315 | 469 | 1230 | 2540 | 3320 | 4730 | 6170 |
| 2026-05-03 10:30 | 0.92 | 185 | 8200 (1973) | 98 (1996) | 1860 | 127 | 195 | 315 | 469 | 1230 | 2540 | 3320 | 4730 | 6170 |
| 2026-05-03 09:30 | 0.92 | 185 | 8200 (1973) | 98 (1996) | 1860 | 127 | 195 | 315 | 469 | 1230 | 2540 | 3320 | 4730 | 6170 |
| 2026-05-03 08:30 | 0.92 | 185 | 8200 (1973) | 98 (1996) | 1860 | 127 | 195 | 315 | 469 | 1230 | 2540 | 3320 | 4730 | 6170 |
| 2026-05-03 07:30 | 0.92 | 185 | 8200 (1973) | 98 (1996) | 1860 | 127 | 195 | 315 | 469 | 1230 | 2540 | 3320 | 4730 | 6170 |
| 2026-05-03 06:30 | 0.92 | 185 | 8200 (1973) | 98 (1996) | 1860 | 127 | 195 | 315 | 469 | 1230 | 2540 | 3320 | 4730 | 6170 |
| 2026-05-03 05:30 | 0.93 | 188 | 8200 (1973) | 98 (1996) | 1860 | 127 | 195 | 315 | 469 | 1230 | 2540 | 3320 | 4730 | 6170 |
| 2026-05-03 04:30 | 0.93 | 188 | 8200 (1973) | 98 (1996) | 1860 | 127 | 195 | 315 | 469 | 1230 | 2540 | 3320 | 4730 | 6170 |
| 2026-05-03 03:30 | 0.93 | 188 | 8200 (1973) | 98 (1996) | 1860 | 127 | 195 | 315 | 469 | 1230 | 2540 | 3320 | 4730 | 6170 |
| 2026-05-03 02:30 | 0.94 | 191 | 8200 (1973) | 98 (1996) | 1860 | 127 | 195 | 315 | 469 | 1230 | 2540 | 3320 | 4730 | 6170 |
| 2026-05-03 01:30 | 0.94 | 191 | 8200 (1973) | 98 (1996) | 1860 | 127 | 195 | 315 | 469 | 1230 | 2540 | 3320 | 4730 | 6170 |
| 2026-05-03 00:30 | 0.94 | 191 | 8200 (1973) | 98 (1996) | 1860 | 127 | 195 | 315 | 469 | 1230 | 2540 | 3320 | 4730 | 6170 |
| 2026-05-02 23:30 | 0.94 | 191 | 8200 (1973) | 98 (1996) | 1860 | 127 | 195 | 315 | 469 | 1230 | 2540 | 3320 | 4730 | 6170 |
| 2026-05-02 22:30 | 0.95 | 193 | 8090 (1991) | 97 (1996) | 1850 | 144 | 154 | 229 | 279 | 907 | 2740 | 3430 | 5510 | 7530 |
| 2026-05-02 21:30 | 0.95 | 193 | 8090 (1991) | 97 (1996) | 1850 | 144 | 154 | 229 | 279 | 907 | 2740 | 3430 | 5510 | 7530 |
| 2026-05-02 20:30 | 0.96 | 195 | 8090 (1991) | 97 (1996) | 1850 | 144 | 154 | 229 | 279 | 907 | 2740 | 3430 | 5510 | 7530 |
| 2026-05-02 19:30 | 0.96 | 195 | 8090 (1991) | 97 (1996) | 1850 | 144 | 154 | 229 | 279 | 907 | 2740 | 3430 | 5510 | 7530 |
| 2026-05-02 18:30 | 0.98 | 200 | 8090 (1991) | 97 (1996) | 1850 | 144 | 154 | 229 | 279 | 907 | 2740 | 3430 | 5510 | 7530 |
| 2026-05-02 17:30 | 0.99 | 202 | 8090 (1991) | 97 (1996) | 1850 | 144 | 154 | 229 | 279 | 907 | 2740 | 3430 | 5510 | 7530 |
| 2026-05-02 16:30 | 1.00 | 205 | 8090 (1991) | 97 (1996) | 1850 | 144 | 154 | 229 | 279 | 907 | 2740 | 3430 | 5510 | 7530 |
| 2026-05-02 15:30 | 0.97 | 197 | 8090 (1991) | 97 (1996) | 1850 | 144 | 154 | 229 | 279 | 907 | 2740 | 3430 | 5510 | 7530 |
| 2026-05-02 14:30 | 1.02 | 210 | 8090 (1991) | 97 (1996) | 1850 | 144 | 154 | 229 | 279 | 907 | 2740 | 3430 | 5510 | 7530 |
| 2026-05-02 13:30 | 1.03 | 213 | 8090 (1991) | 97 (1996) | 1850 | 144 | 154 | 229 | 279 | 907 | 2740 | 3430 | 5510 | 7530 |
| 2026-05-02 12:30 | 1.04 | 215 | 8090 (1991) | 97 (1996) | 1850 | 144 | 154 | 229 | 279 | 907 | 2740 | 3430 | 5510 | 7530 |
| 2026-05-02 11:30 | 1.07 | 224 | 8090 (1991) | 97 (1996) | 1850 | 144 | 154 | 229 | 279 | 907 | 2740 | 3430 | 5510 | 7530 |
| 2026-05-02 10:30 | 1.08 | 226 | 8090 (1991) | 97 (1996) | 1850 | 144 | 154 | 229 | 279 | 907 | 2740 | 3430 | 5510 | 7530 |
| 2026-05-02 09:30 | 1.10 | 232 | 8090 (1991) | 97 (1996) | 1850 | 144 | 154 | 229 | 279 | 907 | 2740 | 3430 | 5510 | 7530 |
| 2026-05-02 08:30 | 1.11 | 235 | 8090 (1991) | 97 (1996) | 1850 | 144 | 154 | 229 | 279 | 907 | 2740 | 3430 | 5510 | 7530 |
| 2026-05-02 07:30 | 1.13 | 241 | 8090 (1991) | 97 (1996) | 1850 | 144 | 154 | 229 | 279 | 907 | 2740 | 3430 | 5510 | 7530 |
| 2026-05-02 06:30 | 1.14 | 244 | 8090 (1991) | 97 (1996) | 1850 | 144 | 154 | 229 | 279 | 907 | 2740 | 3430 | 5510 | 7530 |
| 2026-05-02 05:30 | 1.15 | 247 | 8090 (1991) | 97 (1996) | 1850 | 144 | 154 | 229 | 279 | 907 | 2740 | 3430 | 5510 | 7530 |
| 2026-05-02 04:30 | 1.17 | 253 | 8090 (1991) | 97 (1996) | 1850 | 144 | 154 | 229 | 279 | 907 | 2740 | 3430 | 5510 | 7530 |
| 2026-05-02 03:30 | 1.19 | 259 | 8090 (1991) | 97 (1996) | 1850 | 144 | 154 | 229 | 279 | 907 | 2740 | 3430 | 5510 | 7530 |
| 2026-05-02 02:30 | 1.21 | 265 | 8090 (1991) | 97 (1996) | 1850 | 144 | 154 | 229 | 279 | 907 | 2740 | 3430 | 5510 | 7530 |
| 2026-05-02 01:30 | 1.23 | 271 | 8090 (1991) | 97 (1996) | 1850 | 144 | 154 | 229 | 279 | 907 | 2740 | 3430 | 5510 | 7530 |
| 2026-05-02 00:30 | 1.26 | 281 | 8090 (1991) | 97 (1996) | 1850 | 144 | 154 | 229 | 279 | 907 | 2740 | 3430 | 5510 | 7530 |
| 2026-05-01 23:30 | 1.28 | 287 | 8090 (1991) | 97 (1996) | 1850 | 144 | 154 | 229 | 279 | 907 | 2740 | 3430 | 5510 | 7530 |
| 2026-05-01 22:30 | 1.31 | 297 | 7450 (2008) | 94 (2000) | 1860 | 129 | 136 | 183 | 212 | 907 | 3130 | 3480 | 5710 | 6600 |
| 2026-05-01 21:30 | 1.34 | 307 | 7450 (2008) | 94 (2000) | 1860 | 129 | 136 | 183 | 212 | 907 | 3130 | 3480 | 5710 | 6600 |
| 2026-05-01 20:30 | 1.37 | 317 | 7450 (2008) | 94 (2000) | 1860 | 129 | 136 | 183 | 212 | 907 | 3130 | 3480 | 5710 | 6600 |
| 2026-05-01 19:30 | 1.41 | 331 | 7450 (2008) | 94 (2000) | 1860 | 129 | 136 | 183 | 212 | 907 | 3130 | 3480 | 5710 | 6600 |
| 2026-05-01 18:30 | 1.45 | 345 | 7450 (2008) | 94 (2000) | 1860 | 129 | 136 | 183 | 212 | 907 | 3130 | 3480 | 5710 | 6600 |
| 2026-05-01 17:30 | 1.49 | 360 | 7450 (2008) | 94 (2000) | 1860 | 129 | 136 | 183 | 212 | 907 | 3130 | 3480 | 5710 | 6600 |
| 2026-05-01 16:30 | 1.54 | 378 | 7450 (2008) | 94 (2000) | 1860 | 129 | 136 | 183 | 212 | 907 | 3130 | 3480 | 5710 | 6600 |
| 2026-05-01 15:30 | 1.60 | 401 | 7450 (2008) | 94 (2000) | 1860 | 129 | 136 | 183 | 212 | 907 | 3130 | 3480 | 5710 | 6600 |
| 2026-05-01 14:30 | 1.66 | 425 | 7450 (2008) | 94 (2000) | 1860 | 129 | 136 | 183 | 212 | 907 | 3130 | 3480 | 5710 | 6600 |
| 2026-05-01 13:30 | 1.70 | 442 | 7450 (2008) | 94 (2000) | 1860 | 129 | 136 | 183 | 212 | 907 | 3130 | 3480 | 5710 | 6600 |
| 2026-05-01 12:30 | 1.80 | 485 | 7450 (2008) | 94 (2000) | 1860 | 129 | 136 | 183 | 212 | 907 | 3130 | 3480 | 5710 | 6600 |
| 2026-05-01 11:30 | 1.87 | 518 | 7450 (2008) | 94 (2000) | 1860 | 129 | 136 | 183 | 212 | 907 | 3130 | 3480 | 5710 | 6600 |
| 2026-05-01 10:30 | 1.95 | 557 | 7450 (2008) | 94 (2000) | 1860 | 129 | 136 | 183 | 212 | 907 | 3130 | 3480 | 5710 | 6600 |
| 2026-05-01 09:30 | 2.04 | 604 | 7450 (2008) | 94 (2000) | 1860 | 129 | 136 | 183 | 212 | 907 | 3130 | 3480 | 5710 | 6600 |
| 2026-05-01 08:30 | 2.14 | 662 | 7450 (2008) | 94 (2000) | 1860 | 129 | 136 | 183 | 212 | 907 | 3130 | 3480 | 5710 | 6600 |
| 2026-05-01 07:30 | 2.24 | 725 | 7450 (2008) | 94 (2000) | 1860 | 129 | 136 | 183 | 212 | 907 | 3130 | 3480 | 5710 | 6600 |
| 2026-05-01 06:30 | 2.36 | 807 | 7450 (2008) | 94 (2000) | 1860 | 129 | 136 | 183 | 212 | 907 | 3130 | 3480 | 5710 | 6600 |
| 2026-05-01 05:30 | 2.49 | 903 | 7450 (2008) | 94 (2000) | 1860 | 129 | 136 | 183 | 212 | 907 | 3130 | 3480 | 5710 | 6600 |
| 2026-05-01 04:30 | 2.63 | 1020 | 7450 (2008) | 94 (2000) | 1860 | 129 | 136 | 183 | 212 | 907 | 3130 | 3480 | 5710 | 6600 |
| 2026-05-01 03:30 | 2.79 | 1150 | 7450 (2008) | 94 (2000) | 1860 | 129 | 136 | 183 | 212 | 907 | 3130 | 3480 | 5710 | 6600 |
| 2026-05-01 02:30 | 2.96 | 1300 | 7450 (2008) | 94 (2000) | 1860 | 129 | 136 | 183 | 212 | 907 | 3130 | 3480 | 5710 | 6600 |
| 2026-05-01 01:30 | 3.13 | 1460 | 7450 (2008) | 94 (2000) | 1860 | 129 | 136 | 183 | 212 | 907 | 3130 | 3480 | 5710 | 6600 |
| 2026-05-01 00:30 | 3.27 | 1600 | 7450 (2008) | 94 (2000) | 1860 | 129 | 136 | 183 | 212 | 907 | 3130 | 3480 | 5710 | 6600 |
| 2026-04-30 23:30 | 3.35 | 1680 | 7450 (2008) | 94 (2000) | 1860 | 129 | 136 | 183 | 212 | 907 | 3130 | 3480 | 5710 | 6600 |
| 2026-04-30 22:30 | 3.07 | 1400 | 7640 (2008) | 98 (2000) | 1870 | 139 | 155 | 248 | 325 | 1020 | 2870 | 3420 | 4970 | 6720 |
| 2026-04-30 21:30 | 2.16 | 674 | 7640 (2008) | 98 (2000) | 1870 | 139 | 155 | 248 | 325 | 1020 | 2870 | 3420 | 4970 | 6720 |
| 2026-04-30 20:30 | 1.46 | 349 | 7640 (2008) | 98 (2000) | 1870 | 139 | 155 | 248 | 325 | 1020 | 2870 | 3420 | 4970 | 6720 |
| 2026-04-30 19:30 | 1.46 | 349 | 7640 (2008) | 98 (2000) | 1870 | 139 | 155 | 248 | 325 | 1020 | 2870 | 3420 | 4970 | 6720 |
| 2026-04-30 18:30 | 1.50 | 363 | 7640 (2008) | 98 (2000) | 1870 | 139 | 155 | 248 | 325 | 1020 | 2870 | 3420 | 4970 | 6720 |
| 2026-04-30 17:30 | 1.54 | 378 | 7640 (2008) | 98 (2000) | 1870 | 139 | 155 | 248 | 325 | 1020 | 2870 | 3420 | 4970 | 6720 |
| 2026-04-30 16:30 | 1.58 | 393 | 7640 (2008) | 98 (2000) | 1870 | 139 | 155 | 248 | 325 | 1020 | 2870 | 3420 | 4970 | 6720 |
| 2026-04-30 15:30 | 1.63 | 413 | 7640 (2008) | 98 (2000) | 1870 | 139 | 155 | 248 | 325 | 1020 | 2870 | 3420 | 4970 | 6720 |
| 2026-04-30 14:30 | 1.68 | 433 | 7640 (2008) | 98 (2000) | 1870 | 139 | 155 | 248 | 325 | 1020 | 2870 | 3420 | 4970 | 6720 |
| 2026-04-30 13:30 | 1.74 | 459 | 7640 (2008) | 98 (2000) | 1870 | 139 | 155 | 248 | 325 | 1020 | 2870 | 3420 | 4970 | 6720 |
| 2026-04-30 12:30 | 1.81 | 490 | 7640 (2008) | 98 (2000) | 1870 | 139 | 155 | 248 | 325 | 1020 | 2870 | 3420 | 4970 | 6720 |
| 2026-04-30 11:30 | 1.87 | 518 | 7640 (2008) | 98 (2000) | 1870 | 139 | 155 | 248 | 325 | 1020 | 2870 | 3420 | 4970 | 6720 |
| 2026-04-30 10:30 | 1.95 | 557 | 7640 (2008) | 98 (2000) | 1870 | 139 | 155 | 248 | 325 | 1020 | 2870 | 3420 | 4970 | 6720 |
| 2026-04-30 09:30 | 2.01 | 588 | 7640 (2008) | 98 (2000) | 1870 | 139 | 155 | 248 | 325 | 1020 | 2870 | 3420 | 4970 | 6720 |
| 2026-04-30 08:30 | 2.11 | 644 | 7640 (2008) | 98 (2000) | 1870 | 139 | 155 | 248 | 325 | 1020 | 2870 | 3420 | 4970 | 6720 |
| 2026-04-30 07:30 | 2.20 | 699 | 7640 (2008) | 98 (2000) | 1870 | 139 | 155 | 248 | 325 | 1020 | 2870 | 3420 | 4970 | 6720 |
| 2026-04-30 06:30 | 2.30 | 765 | 7640 (2008) | 98 (2000) | 1870 | 139 | 155 | 248 | 325 | 1020 | 2870 | 3420 | 4970 | 6720 |
| 2026-04-30 05:30 | 2.41 | 843 | 7640 (2008) | 98 (2000) | 1870 | 139 | 155 | 248 | 325 | 1020 | 2870 | 3420 | 4970 | 6720 |
| 2026-04-30 04:30 | 2.54 | 942 | 7640 (2008) | 98 (2000) | 1870 | 139 | 155 | 248 | 325 | 1020 | 2870 | 3420 | 4970 | 6720 |
| 2026-04-30 03:30 | 2.69 | 1060 | 7640 (2008) | 98 (2000) | 1870 | 139 | 155 | 248 | 325 | 1020 | 2870 | 3420 | 4970 | 6720 |
| 2026-04-30 02:30 | 2.83 | 1180 | 7640 (2008) | 98 (2000) | 1870 | 139 | 155 | 248 | 325 | 1020 | 2870 | 3420 | 4970 | 6720 |
| 2026-04-30 01:30 | 2.98 | 1310 | 7640 (2008) | 98 (2000) | 1870 | 139 | 155 | 248 | 325 | 1020 | 2870 | 3420 | 4970 | 6720 |
| 2026-04-30 00:30 | 3.13 | 1460 | 7640 (2008) | 98 (2000) | 1870 | 139 | 155 | 248 | 325 | 1020 | 2870 | 3420 | 4970 | 6720 |
| 2026-04-29 23:30 | 3.21 | 1540 | 7640 (2008) | 98 (2000) | 1870 | 139 | 155 | 248 | 325 | 1020 | 2870 | 3420 | 4970 | 6720 |
| 2026-04-29 22:30 | 3.10 | 1430 | 8420 (2016) | 113 (2003) | 1960 | 150 | 177 | 219 | 279 | 1090 | 2770 | 3230 | 6070 | 6960 |
| 2026-04-29 21:30 | 2.61 | 999 | 8420 (2016) | 113 (2003) | 1960 | 150 | 177 | 219 | 279 | 1090 | 2770 | 3230 | 6070 | 6960 |
| 2026-04-29 20:30 | 2.03 | 599 | 8420 (2016) | 113 (2003) | 1960 | 150 | 177 | 219 | 279 | 1090 | 2770 | 3230 | 6070 | 6960 |
| 2026-04-29 19:30 | 1.99 | 577 | 8420 (2016) | 113 (2003) | 1960 | 150 | 177 | 219 | 279 | 1090 | 2770 | 3230 | 6070 | 6960 |
| 2026-04-29 18:30 | 2.06 | 615 | 8420 (2016) | 113 (2003) | 1960 | 150 | 177 | 219 | 279 | 1090 | 2770 | 3230 | 6070 | 6960 |
| 2026-04-29 17:30 | 2.14 | 662 | 8420 (2016) | 113 (2003) | 1960 | 150 | 177 | 219 | 279 | 1090 | 2770 | 3230 | 6070 | 6960 |
| 2026-04-29 16:30 | 2.21 | 705 | 8420 (2016) | 113 (2003) | 1960 | 150 | 177 | 219 | 279 | 1090 | 2770 | 3230 | 6070 | 6960 |
| 2026-04-29 15:30 | 2.30 | 765 | 8420 (2016) | 113 (2003) | 1960 | 150 | 177 | 219 | 279 | 1090 | 2770 | 3230 | 6070 | 6960 |
| 2026-04-29 14:30 | 2.40 | 836 | 8420 (2016) | 113 (2003) | 1960 | 150 | 177 | 219 | 279 | 1090 | 2770 | 3230 | 6070 | 6960 |
| 2026-04-29 13:30 | 2.50 | 911 | 8420 (2016) | 113 (2003) | 1960 | 150 | 177 | 219 | 279 | 1090 | 2770 | 3230 | 6070 | 6960 |
| 2026-04-29 12:30 | 2.61 | 999 | 8420 (2016) | 113 (2003) | 1960 | 150 | 177 | 219 | 279 | 1090 | 2770 | 3230 | 6070 | 6960 |
| 2026-04-29 11:30 | 2.73 | 1100 | 8420 (2016) | 113 (2003) | 1960 | 150 | 177 | 219 | 279 | 1090 | 2770 | 3230 | 6070 | 6960 |
| 2026-04-29 10:30 | 2.86 | 1210 | 8420 (2016) | 113 (2003) | 1960 | 150 | 177 | 219 | 279 | 1090 | 2770 | 3230 | 6070 | 6960 |
| 2026-04-29 09:30 | 3.01 | 1340 | 8420 (2016) | 113 (2003) | 1960 | 150 | 177 | 219 | 279 | 1090 | 2770 | 3230 | 6070 | 6960 |
| 2026-04-29 08:30 | 3.16 | 1490 | 8420 (2016) | 113 (2003) | 1960 | 150 | 177 | 219 | 279 | 1090 | 2770 | 3230 | 6070 | 6960 |
| 2026-04-29 07:30 | 3.32 | 1650 | 8420 (2016) | 113 (2003) | 1960 | 150 | 177 | 219 | 279 | 1090 | 2770 | 3230 | 6070 | 6960 |
| 2026-04-29 06:30 | 3.51 | 1850 | 8420 (2016) | 113 (2003) | 1960 | 150 | 177 | 219 | 279 | 1090 | 2770 | 3230 | 6070 | 6960 |
| 2026-04-29 05:30 | 3.71 | 2070 | 8420 (2016) | 113 (2003) | 1960 | 150 | 177 | 219 | 279 | 1090 | 2770 | 3230 | 6070 | 6960 |
| 2026-04-29 04:30 | 3.90 | 2280 | 8420 (2016) | 113 (2003) | 1960 | 150 | 177 | 219 | 279 | 1090 | 2770 | 3230 | 6070 | 6960 |
| 2026-04-29 03:30 | 4.11 | 2530 | 8420 (2016) | 113 (2003) | 1960 | 150 | 177 | 219 | 279 | 1090 | 2770 | 3230 | 6070 | 6960 |
| 2026-04-29 02:30 | 4.30 | 2750 | 8420 (2016) | 113 (2003) | 1960 | 150 | 177 | 219 | 279 | 1090 | 2770 | 3230 | 6070 | 6960 |
| 2026-04-29 01:30 | 4.51 | 3010 | 8420 (2016) | 113 (2003) | 1960 | 150 | 177 | 219 | 279 | 1090 | 2770 | 3230 | 6070 | 6960 |
| 2026-04-29 00:30 | 4.69 | 3250 | 8420 (2016) | 113 (2003) | 1960 | 150 | 177 | 219 | 279 | 1090 | 2770 | 3230 | 6070 | 6960 |
| 2026-04-28 23:30 | 4.86 | 3480 | 8420 (2016) | 113 (2003) | 1960 | 150 | 177 | 219 | 279 | 1090 | 2770 | 3230 | 6070 | 6960 |
| 2026-04-28 22:30 | 4.94 | 3590 | 8000 (2008) | 116 (2003) | 1900 | 133 | 174 | 206 | 265 | 1040 | 2360 | 3100 | 6640 | 7030 |
| 2026-04-28 21:30 | 4.75 | 3330 | 8000 (2008) | 116 (2003) | 1900 | 133 | 174 | 206 | 265 | 1040 | 2360 | 3100 | 6640 | 7030 |
| 2026-04-28 20:30 | 3.88 | 2260 | 8000 (2008) | 116 (2003) | 1900 | 133 | 174 | 206 | 265 | 1040 | 2360 | 3100 | 6640 | 7030 |
| 2026-04-28 19:30 | 2.53 | 934 | 8000 (2008) | 116 (2003) | 1900 | 133 | 174 | 206 | 265 | 1040 | 2360 | 3100 | 6640 | 7030 |
| 2026-04-28 18:30 | 1.73 | 454 | 8000 (2008) | 116 (2003) | 1900 | 133 | 174 | 206 | 265 | 1040 | 2360 | 3100 | 6640 | 7030 |
| 2026-04-28 17:30 | 1.66 | 425 | 8000 (2008) | 116 (2003) | 1900 | 133 | 174 | 206 | 265 | 1040 | 2360 | 3100 | 6640 | 7030 |
| 2026-04-28 16:30 | 1.71 | 446 | 8000 (2008) | 116 (2003) | 1900 | 133 | 174 | 206 | 265 | 1040 | 2360 | 3100 | 6640 | 7030 |
| 2026-04-28 15:30 | 1.75 | 463 | 8000 (2008) | 116 (2003) | 1900 | 133 | 174 | 206 | 265 | 1040 | 2360 | 3100 | 6640 | 7030 |
| 2026-04-28 14:30 | 1.80 | 485 | 8000 (2008) | 116 (2003) | 1900 | 133 | 174 | 206 | 265 | 1040 | 2360 | 3100 | 6640 | 7030 |
| 2026-04-28 13:30 | 1.88 | 522 | 8000 (2008) | 116 (2003) | 1900 | 133 | 174 | 206 | 265 | 1040 | 2360 | 3100 | 6640 | 7030 |
| 2026-04-28 12:30 | 1.94 | 552 | 8000 (2008) | 116 (2003) | 1900 | 133 | 174 | 206 | 265 | 1040 | 2360 | 3100 | 6640 | 7030 |
| 2026-04-28 11:30 | 1.98 | 572 | 8000 (2008) | 116 (2003) | 1900 | 133 | 174 | 206 | 265 | 1040 | 2360 | 3100 | 6640 | 7030 |
| 2026-04-28 10:30 | 2.08 | 627 | 8000 (2008) | 116 (2003) | 1900 | 133 | 174 | 206 | 265 | 1040 | 2360 | 3100 | 6640 | 7030 |
| 2026-04-28 09:30 | 2.18 | 686 | 8000 (2008) | 116 (2003) | 1900 | 133 | 174 | 206 | 265 | 1040 | 2360 | 3100 | 6640 | 7030 |
| 2026-04-28 08:30 | 2.31 | 772 | 8000 (2008) | 116 (2003) | 1900 | 133 | 174 | 206 | 265 | 1040 | 2360 | 3100 | 6640 | 7030 |
| 2026-04-28 07:30 | 2.44 | 865 | 8000 (2008) | 116 (2003) | 1900 | 133 | 174 | 206 | 265 | 1040 | 2360 | 3100 | 6640 | 7030 |
| 2026-04-28 06:30 | 2.58 | 974 | 8000 (2008) | 116 (2003) | 1900 | 133 | 174 | 206 | 265 | 1040 | 2360 | 3100 | 6640 | 7030 |
| 2026-04-28 05:30 | 2.74 | 1100 | 8000 (2008) | 116 (2003) | 1900 | 133 | 174 | 206 | 265 | 1040 | 2360 | 3100 | 6640 | 7030 |
| 2026-04-28 04:30 | 2.91 | 1250 | 8000 (2008) | 116 (2003) | 1900 | 133 | 174 | 206 | 265 | 1040 | 2360 | 3100 | 6640 | 7030 |
| 2026-04-28 03:30 | 3.10 | 1430 | 8000 (2008) | 116 (2003) | 1900 | 133 | 174 | 206 | 265 | 1040 | 2360 | 3100 | 6640 | 7030 |
| 2026-04-28 02:30 | 3.29 | 1620 | 8000 (2008) | 116 (2003) | 1900 | 133 | 174 | 206 | 265 | 1040 | 2360 | 3100 | 6640 | 7030 |
| 2026-04-28 01:30 | 3.52 | 1860 | 8000 (2008) | 116 (2003) | 1900 | 133 | 174 | 206 | 265 | 1040 | 2360 | 3100 | 6640 | 7030 |
| 2026-04-28 00:30 | 3.73 | 2090 | 8000 (2008) | 116 (2003) | 1900 | 133 | 174 | 206 | 265 | 1040 | 2360 | 3100 | 6640 | 7030 |
| 2026-04-27 23:30 | 3.91 | 2290 | 8000 (2008) | 116 (2003) | 1900 | 133 | 174 | 206 | 265 | 1040 | 2360 | 3100 | 6640 | 7030 |
| 2026-04-27 22:30 | 3.91 | 2290 | 8330 (2008) | 117 (1998) | 2040 | 125 | 147 | 227 | 297 | 930 | 2470 | 3550 | 6830 | 7870 |
| 2026-04-27 21:30 | 3.23 | 1560 | 8330 (2008) | 117 (1998) | 2040 | 125 | 147 | 227 | 297 | 930 | 2470 | 3550 | 6830 | 7870 |
| 2026-04-27 20:30 | 1.87 | 518 | 8330 (2008) | 117 (1998) | 2040 | 125 | 147 | 227 | 297 | 930 | 2470 | 3550 | 6830 | 7870 |
| 2026-04-27 19:30 | 1.21 | 265 | 8330 (2008) | 117 (1998) | 2040 | 125 | 147 | 227 | 297 | 930 | 2470 | 3550 | 6830 | 7870 |
| 2026-04-27 18:30 | 1.23 | 271 | 8330 (2008) | 117 (1998) | 2040 | 125 | 147 | 227 | 297 | 930 | 2470 | 3550 | 6830 | 7870 |
| 2026-04-27 17:30 | 1.25 | 278 | 8330 (2008) | 117 (1998) | 2040 | 125 | 147 | 227 | 297 | 930 | 2470 | 3550 | 6830 | 7870 |
| 2026-04-27 16:30 | 1.24 | 275 | 8330 (2008) | 117 (1998) | 2040 | 125 | 147 | 227 | 297 | 930 | 2470 | 3550 | 6830 | 7870 |
| 2026-04-27 15:30 | 1.29 | 290 | 8330 (2008) | 117 (1998) | 2040 | 125 | 147 | 227 | 297 | 930 | 2470 | 3550 | 6830 | 7870 |
| 2026-04-27 14:30 | 1.35 | 310 | 8330 (2008) | 117 (1998) | 2040 | 125 | 147 | 227 | 297 | 930 | 2470 | 3550 | 6830 | 7870 |
| 2026-04-27 13:30 | 1.37 | 317 | 8330 (2008) | 117 (1998) | 2040 | 125 | 147 | 227 | 297 | 930 | 2470 | 3550 | 6830 | 7870 |
| 2026-04-27 12:30 | 1.45 | 345 | 8330 (2008) | 117 (1998) | 2040 | 125 | 147 | 227 | 297 | 930 | 2470 | 3550 | 6830 | 7870 |
| 2026-04-27 11:30 | 1.48 | 356 | 8330 (2008) | 117 (1998) | 2040 | 125 | 147 | 227 | 297 | 930 | 2470 | 3550 | 6830 | 7870 |
| 2026-04-27 10:30 | 1.49 | 360 | 8330 (2008) | 117 (1998) | 2040 | 125 | 147 | 227 | 297 | 930 | 2470 | 3550 | 6830 | 7870 |
| 2026-04-27 09:30 | 1.60 | 401 | 8330 (2008) | 117 (1998) | 2040 | 125 | 147 | 227 | 297 | 930 | 2470 | 3550 | 6830 | 7870 |
| 2026-04-27 08:30 | 1.67 | 429 | 8330 (2008) | 117 (1998) | 2040 | 125 | 147 | 227 | 297 | 930 | 2470 | 3550 | 6830 | 7870 |
| 2026-04-27 07:30 | 1.74 | 459 | 8330 (2008) | 117 (1998) | 2040 | 125 | 147 | 227 | 297 | 930 | 2470 | 3550 | 6830 | 7870 |
| 2026-04-27 06:30 | 1.81 | 490 | 8330 (2008) | 117 (1998) | 2040 | 125 | 147 | 227 | 297 | 930 | 2470 | 3550 | 6830 | 7870 |
| 2026-04-27 05:30 | 1.89 | 527 | 8330 (2008) | 117 (1998) | 2040 | 125 | 147 | 227 | 297 | 930 | 2470 | 3550 | 6830 | 7870 |
| 2026-04-27 04:30 | 1.98 | 572 | 8330 (2008) | 117 (1998) | 2040 | 125 | 147 | 227 | 297 | 930 | 2470 | 3550 | 6830 | 7870 |
| 2026-04-27 03:30 | 2.08 | 627 | 8330 (2008) | 117 (1998) | 2040 | 125 | 147 | 227 | 297 | 930 | 2470 | 3550 | 6830 | 7870 |
| 2026-04-27 02:30 | 2.18 | 686 | 8330 (2008) | 117 (1998) | 2040 | 125 | 147 | 227 | 297 | 930 | 2470 | 3550 | 6830 | 7870 |
| 2026-04-27 01:30 | 2.28 | 751 | 8330 (2008) | 117 (1998) | 2040 | 125 | 147 | 227 | 297 | 930 | 2470 | 3550 | 6830 | 7870 |
| 2026-04-27 00:30 | 2.37 | 814 | 8330 (2008) | 117 (1998) | 2040 | 125 | 147 | 227 | 297 | 930 | 2470 | 3550 | 6830 | 7870 |
| 2026-04-26 23:30 | 2.40 | 836 | 8330 (2008) | 117 (1998) | 2040 | 125 | 147 | 227 | 297 | 930 | 2470 | 3550 | 6830 | 7870 |
| 2026-04-26 22:30 | 2.27 | 745 | 8500 (1991) | 108 (1998) | 2110 | 133 | 188 | 358 | 474 | 985 | 2660 | 3550 | 6910 | 7990 |
| 2026-04-26 21:30 | 1.87 | 518 | 8500 (1991) | 108 (1998) | 2110 | 133 | 188 | 358 | 474 | 985 | 2660 | 3550 | 6910 | 7990 |
| 2026-04-26 20:30 | 1.46 | 349 | 8500 (1991) | 108 (1998) | 2110 | 133 | 188 | 358 | 474 | 985 | 2660 | 3550 | 6910 | 7990 |
| 2026-04-26 19:30 | 1.46 | 349 | 8500 (1991) | 108 (1998) | 2110 | 133 | 188 | 358 | 474 | 985 | 2660 | 3550 | 6910 | 7990 |
| 2026-04-26 18:30 | 1.52 | 371 | 8500 (1991) | 108 (1998) | 2110 | 133 | 188 | 358 | 474 | 985 | 2660 | 3550 | 6910 | 7990 |
| 2026-04-26 17:30 | 1.56 | 386 | 8500 (1991) | 108 (1998) | 2110 | 133 | 188 | 358 | 474 | 985 | 2660 | 3550 | 6910 | 7990 |
| 2026-04-26 16:30 | 1.64 | 417 | 8500 (1991) | 108 (1998) | 2110 | 133 | 188 | 358 | 474 | 985 | 2660 | 3550 | 6910 | 7990 |
| 2026-04-26 15:30 | 1.70 | 442 | 8500 (1991) | 108 (1998) | 2110 | 133 | 188 | 358 | 474 | 985 | 2660 | 3550 | 6910 | 7990 |
| 2026-04-26 14:30 | 1.78 | 476 | 8500 (1991) | 108 (1998) | 2110 | 133 | 188 | 358 | 474 | 985 | 2660 | 3550 | 6910 | 7990 |
| 2026-04-26 13:30 | 1.85 | 508 | 8500 (1991) | 108 (1998) | 2110 | 133 | 188 | 358 | 474 | 985 | 2660 | 3550 | 6910 | 7990 |
| 2026-04-26 12:30 | 1.94 | 552 | 8500 (1991) | 108 (1998) | 2110 | 133 | 188 | 358 | 474 | 985 | 2660 | 3550 | 6910 | 7990 |
| 2026-04-26 11:30 | 2.03 | 599 | 8500 (1991) | 108 (1998) | 2110 | 133 | 188 | 358 | 474 | 985 | 2660 | 3550 | 6910 | 7990 |
| 2026-04-26 10:30 | 2.14 | 662 | 8500 (1991) | 108 (1998) | 2110 | 133 | 188 | 358 | 474 | 985 | 2660 | 3550 | 6910 | 7990 |
| 2026-04-26 09:30 | 2.25 | 731 | 8500 (1991) | 108 (1998) | 2110 | 133 | 188 | 358 | 474 | 985 | 2660 | 3550 | 6910 | 7990 |
| 2026-04-26 08:30 | 2.39 | 829 | 8500 (1991) | 108 (1998) | 2110 | 133 | 188 | 358 | 474 | 985 | 2660 | 3550 | 6910 | 7990 |
| 2026-04-26 07:30 | 2.52 | 926 | 8500 (1991) | 108 (1998) | 2110 | 133 | 188 | 358 | 474 | 985 | 2660 | 3550 | 6910 | 7990 |
| 2026-04-26 06:30 | 2.67 | 1050 | 8500 (1991) | 108 (1998) | 2110 | 133 | 188 | 358 | 474 | 985 | 2660 | 3550 | 6910 | 7990 |
| 2026-04-26 05:30 | 2.83 | 1180 | 8500 (1991) | 108 (1998) | 2110 | 133 | 188 | 358 | 474 | 985 | 2660 | 3550 | 6910 | 7990 |
| 2026-04-26 04:30 | 3.00 | 1330 | 8500 (1991) | 108 (1998) | 2110 | 133 | 188 | 358 | 474 | 985 | 2660 | 3550 | 6910 | 7990 |
| 2026-04-26 03:30 | 3.20 | 1530 | 8500 (1991) | 108 (1998) | 2110 | 133 | 188 | 358 | 474 | 985 | 2660 | 3550 | 6910 | 7990 |
| 2026-04-26 02:30 | 3.40 | 1730 | 8500 (1991) | 108 (1998) | 2110 | 133 | 188 | 358 | 474 | 985 | 2660 | 3550 | 6910 | 7990 |
| 2026-04-26 01:30 | 3.63 | 1980 | 8500 (1991) | 108 (1998) | 2110 | 133 | 188 | 358 | 474 | 985 | 2660 | 3550 | 6910 | 7990 |
| 2026-04-26 00:30 | 3.85 | 2220 | 8500 (1991) | 108 (1998) | 2110 | 133 | 188 | 358 | 474 | 985 | 2660 | 3550 | 6910 | 7990 |
| 2026-04-25 23:30 | 4.07 | 2480 | 8500 (1991) | 108 (1998) | 2110 | 133 | 188 | 358 | 474 | 985 | 2660 | 3550 | 6910 | 7990 |
| 2026-04-25 22:30 | 4.06 | 2470 | 8340 (2008) | 108 (1998) | 1990 | 132 | 179 | 304 | 359 | 1010 | 2760 | 4010 | 5880 | 7830 |
| 2026-04-25 21:30 | 3.58 | 1920 | 8340 (2008) | 108 (1998) | 1990 | 132 | 179 | 304 | 359 | 1010 | 2760 | 4010 | 5880 | 7830 |
| 2026-04-25 20:30 | 2.36 | 807 | 8340 (2008) | 108 (1998) | 1990 | 132 | 179 | 304 | 359 | 1010 | 2760 | 4010 | 5880 | 7830 |
| 2026-04-25 19:30 | 1.62 | 409 | 8340 (2008) | 108 (1998) | 1990 | 132 | 179 | 304 | 359 | 1010 | 2760 | 4010 | 5880 | 7830 |
| 2026-04-25 18:30 | 1.62 | 409 | 8340 (2008) | 108 (1998) | 1990 | 132 | 179 | 304 | 359 | 1010 | 2760 | 4010 | 5880 | 7830 |
| 2026-04-25 17:30 | 1.68 | 433 | 8340 (2008) | 108 (1998) | 1990 | 132 | 179 | 304 | 359 | 1010 | 2760 | 4010 | 5880 | 7830 |
| 2026-04-25 16:30 | 1.76 | 467 | 8340 (2008) | 108 (1998) | 1990 | 132 | 179 | 304 | 359 | 1010 | 2760 | 4010 | 5880 | 7830 |
| 2026-04-25 15:30 | 1.83 | 499 | 8340 (2008) | 108 (1998) | 1990 | 132 | 179 | 304 | 359 | 1010 | 2760 | 4010 | 5880 | 7830 |
| 2026-04-25 14:30 | 1.89 | 527 | 8340 (2008) | 108 (1998) | 1990 | 132 | 179 | 304 | 359 | 1010 | 2760 | 4010 | 5880 | 7830 |
| 2026-04-25 13:30 | 2.01 | 588 | 8340 (2008) | 108 (1998) | 1990 | 132 | 179 | 304 | 359 | 1010 | 2760 | 4010 | 5880 | 7830 |
| 2026-04-25 12:30 | 2.10 | 638 | 8340 (2008) | 108 (1998) | 1990 | 132 | 179 | 304 | 359 | 1010 | 2760 | 4010 | 5880 | 7830 |
| 2026-04-25 11:30 | 2.21 | 705 | 8340 (2008) | 108 (1998) | 1990 | 132 | 179 | 304 | 359 | 1010 | 2760 | 4010 | 5880 | 7830 |
| 2026-04-25 10:30 | 2.32 | 779 | 8340 (2008) | 108 (1998) | 1990 | 132 | 179 | 304 | 359 | 1010 | 2760 | 4010 | 5880 | 7830 |
| 2026-04-25 09:30 | 2.46 | 880 | 8340 (2008) | 108 (1998) | 1990 | 132 | 179 | 304 | 359 | 1010 | 2760 | 4010 | 5880 | 7830 |
| 2026-04-25 08:30 | 2.60 | 990 | 8340 (2008) | 108 (1998) | 1990 | 132 | 179 | 304 | 359 | 1010 | 2760 | 4010 | 5880 | 7830 |
| 2026-04-25 07:30 | 2.76 | 1120 | 8340 (2008) | 108 (1998) | 1990 | 132 | 179 | 304 | 359 | 1010 | 2760 | 4010 | 5880 | 7830 |
| 2026-04-25 06:30 | 2.93 | 1270 | 8340 (2008) | 108 (1998) | 1990 | 132 | 179 | 304 | 359 | 1010 | 2760 | 4010 | 5880 | 7830 |
| 2026-04-25 05:30 | 3.11 | 1440 | 8340 (2008) | 108 (1998) | 1990 | 132 | 179 | 304 | 359 | 1010 | 2760 | 4010 | 5880 | 7830 |
| 2026-04-25 04:30 | 3.31 | 1640 | 8340 (2008) | 108 (1998) | 1990 | 132 | 179 | 304 | 359 | 1010 | 2760 | 4010 | 5880 | 7830 |
| 2026-04-25 03:30 | 3.54 | 1880 | 8340 (2008) | 108 (1998) | 1990 | 132 | 179 | 304 | 359 | 1010 | 2760 | 4010 | 5880 | 7830 |
| 2026-04-25 02:30 | 3.77 | 2130 | 8340 (2008) | 108 (1998) | 1990 | 132 | 179 | 304 | 359 | 1010 | 2760 | 4010 | 5880 | 7830 |
| 2026-04-25 01:30 | 4.00 | 2400 | 8340 (2008) | 108 (1998) | 1990 | 132 | 179 | 304 | 359 | 1010 | 2760 | 4010 | 5880 | 7830 |
| 2026-04-25 00:30 | 4.24 | 2680 | 8340 (2008) | 108 (1998) | 1990 | 132 | 179 | 304 | 359 | 1010 | 2760 | 4010 | 5880 | 7830 |
| 2026-04-24 23:30 | 4.42 | 2900 | 8340 (2008) | 108 (1998) | 1990 | 132 | 179 | 304 | 359 | 1010 | 2760 | 4010 | 5880 | 7830 |
| 2026-04-24 22:30 | 4.53 | 3040 | 8400 (1991) | 129 (1978) | 1910 | 131 | 160 | 209 | 287 | 1170 | 2350 | 3070 | 5490 | 7390 |
| 2026-04-24 21:30 | 4.34 | 2800 | 8400 (1991) | 129 (1978) | 1910 | 131 | 160 | 209 | 287 | 1170 | 2350 | 3070 | 5490 | 7390 |
| 2026-04-24 20:30 | 3.41 | 1740 | 8400 (1991) | 129 (1978) | 1910 | 131 | 160 | 209 | 287 | 1170 | 2350 | 3070 | 5490 | 7390 |
| 2026-04-24 19:30 | 2.04 | 604 | 8400 (1991) | 129 (1978) | 1910 | 131 | 160 | 209 | 287 | 1170 | 2350 | 3070 | 5490 | 7390 |
| 2026-04-24 18:30 | 1.32 | 300 | 8400 (1991) | 129 (1978) | 1910 | 131 | 160 | 209 | 287 | 1170 | 2350 | 3070 | 5490 | 7390 |
| 2026-04-24 17:30 | 1.35 | 310 | 8400 (1991) | 129 (1978) | 1910 | 131 | 160 | 209 | 287 | 1170 | 2350 | 3070 | 5490 | 7390 |
| 2026-04-24 16:30 | 1.39 | 324 | 8400 (1991) | 129 (1978) | 1910 | 131 | 160 | 209 | 287 | 1170 | 2350 | 3070 | 5490 | 7390 |
| 2026-04-24 15:30 | 1.43 | 338 | 8400 (1991) | 129 (1978) | 1910 | 131 | 160 | 209 | 287 | 1170 | 2350 | 3070 | 5490 | 7390 |
| 2026-04-24 14:30 | 1.48 | 356 | 8400 (1991) | 129 (1978) | 1910 | 131 | 160 | 209 | 287 | 1170 | 2350 | 3070 | 5490 | 7390 |
| 2026-04-24 13:30 | 1.54 | 378 | 8400 (1991) | 129 (1978) | 1910 | 131 | 160 | 209 | 287 | 1170 | 2350 | 3070 | 5490 | 7390 |
| 2026-04-24 12:30 | 1.60 | 401 | 8400 (1991) | 129 (1978) | 1910 | 131 | 160 | 209 | 287 | 1170 | 2350 | 3070 | 5490 | 7390 |
| 2026-04-24 11:30 | 1.66 | 425 | 8400 (1991) | 129 (1978) | 1910 | 131 | 160 | 209 | 287 | 1170 | 2350 | 3070 | 5490 | 7390 |
| 2026-04-24 10:30 | 1.73 | 454 | 8400 (1991) | 129 (1978) | 1910 | 131 | 160 | 209 | 287 | 1170 | 2350 | 3070 | 5490 | 7390 |
| 2026-04-24 09:30 | 1.81 | 490 | 8400 (1991) | 129 (1978) | 1910 | 131 | 160 | 209 | 287 | 1170 | 2350 | 3070 | 5490 | 7390 |
| 2026-04-24 08:30 | 1.89 | 527 | 8400 (1991) | 129 (1978) | 1910 | 131 | 160 | 209 | 287 | 1170 | 2350 | 3070 | 5490 | 7390 |
| 2026-04-24 07:30 | 1.99 | 577 | 8400 (1991) | 129 (1978) | 1910 | 131 | 160 | 209 | 287 | 1170 | 2350 | 3070 | 5490 | 7390 |
| 2026-04-24 06:30 | 2.08 | 627 | 8400 (1991) | 129 (1978) | 1910 | 131 | 160 | 209 | 287 | 1170 | 2350 | 3070 | 5490 | 7390 |
| 2026-04-24 05:30 | 2.20 | 699 | 8400 (1991) | 129 (1978) | 1910 | 131 | 160 | 209 | 287 | 1170 | 2350 | 3070 | 5490 | 7390 |
| 2026-04-24 04:30 | 2.32 | 779 | 8400 (1991) | 129 (1978) | 1910 | 131 | 160 | 209 | 287 | 1170 | 2350 | 3070 | 5490 | 7390 |
| 2026-04-24 03:30 | 2.46 | 880 | 8400 (1991) | 129 (1978) | 1910 | 131 | 160 | 209 | 287 | 1170 | 2350 | 3070 | 5490 | 7390 |
| 2026-04-24 02:30 | 2.60 | 990 | 8400 (1991) | 129 (1978) | 1910 | 131 | 160 | 209 | 287 | 1170 | 2350 | 3070 | 5490 | 7390 |
| 2026-04-24 01:30 | 2.76 | 1120 | 8400 (1991) | 129 (1978) | 1910 | 131 | 160 | 209 | 287 | 1170 | 2350 | 3070 | 5490 | 7390 |
| 2026-04-24 00:30 | 2.92 | 1260 | 8400 (1991) | 129 (1978) | 1910 | 131 | 160 | 209 | 287 | 1170 | 2350 | 3070 | 5490 | 7390 |
| 2026-04-23 23:30 | 3.05 | 1380 | 8400 (1991) | 129 (1978) | 1910 | 131 | 160 | 209 | 287 | 1170 | 2350 | 3070 | 5490 | 7390 |
| 2026-04-23 22:30 | 3.01 | 1340 | 8600 (1991) | 93 (2004) | 2160 | 120 | 136 | 174 | 215 | 1750 | 2940 | 3710 | 6070 | 7310 |
| 2026-04-23 21:30 | 2.58 | 974 | 8600 (1991) | 93 (2004) | 2160 | 120 | 136 | 174 | 215 | 1750 | 2940 | 3710 | 6070 | 7310 |
| 2026-04-23 20:30 | 1.47 | 352 | 8600 (1991) | 93 (2004) | 2160 | 120 | 136 | 174 | 215 | 1750 | 2940 | 3710 | 6070 | 7310 |
| 2026-04-23 19:30 | 0.93 | 188 | 8600 (1991) | 93 (2004) | 2160 | 120 | 136 | 174 | 215 | 1750 | 2940 | 3710 | 6070 | 7310 |
| 2026-04-23 18:30 | 0.92 | 185 | 8600 (1991) | 93 (2004) | 2160 | 120 | 136 | 174 | 215 | 1750 | 2940 | 3710 | 6070 | 7310 |
| 2026-04-23 17:30 | 0.94 | 191 | 8600 (1991) | 93 (2004) | 2160 | 120 | 136 | 174 | 215 | 1750 | 2940 | 3710 | 6070 | 7310 |
| 2026-04-23 16:30 | 0.94 | 191 | 8600 (1991) | 93 (2004) | 2160 | 120 | 136 | 174 | 215 | 1750 | 2940 | 3710 | 6070 | 7310 |
| 2026-04-23 15:30 | 0.97 | 197 | 8600 (1991) | 93 (2004) | 2160 | 120 | 136 | 174 | 215 | 1750 | 2940 | 3710 | 6070 | 7310 |
| 2026-04-23 14:30 | 0.97 | 197 | 8600 (1991) | 93 (2004) | 2160 | 120 | 136 | 174 | 215 | 1750 | 2940 | 3710 | 6070 | 7310 |
| 2026-04-23 13:30 | 0.96 | 195 | 8600 (1991) | 93 (2004) | 2160 | 120 | 136 | 174 | 215 | 1750 | 2940 | 3710 | 6070 | 7310 |
| 2026-04-23 12:30 | 0.99 | 202 | 8600 (1991) | 93 (2004) | 2160 | 120 | 136 | 174 | 215 | 1750 | 2940 | 3710 | 6070 | 7310 |
| 2026-04-23 11:30 | 1.00 | 205 | 8600 (1991) | 93 (2004) | 2160 | 120 | 136 | 174 | 215 | 1750 | 2940 | 3710 | 6070 | 7310 |
| 2026-04-23 10:30 | 1.02 | 210 | 8600 (1991) | 93 (2004) | 2160 | 120 | 136 | 174 | 215 | 1750 | 2940 | 3710 | 6070 | 7310 |
| 2026-04-23 09:30 | 1.03 | 213 | 8600 (1991) | 93 (2004) | 2160 | 120 | 136 | 174 | 215 | 1750 | 2940 | 3710 | 6070 | 7310 |
| 2026-04-23 08:30 | 1.05 | 218 | 8600 (1991) | 93 (2004) | 2160 | 120 | 136 | 174 | 215 | 1750 | 2940 | 3710 | 6070 | 7310 |
| 2026-04-23 07:30 | 1.06 | 221 | 8600 (1991) | 93 (2004) | 2160 | 120 | 136 | 174 | 215 | 1750 | 2940 | 3710 | 6070 | 7310 |
| 2026-04-23 06:30 | 1.08 | 226 | 8600 (1991) | 93 (2004) | 2160 | 120 | 136 | 174 | 215 | 1750 | 2940 | 3710 | 6070 | 7310 |
| 2026-04-23 05:30 | 1.10 | 232 | 8600 (1991) | 93 (2004) | 2160 | 120 | 136 | 174 | 215 | 1750 | 2940 | 3710 | 6070 | 7310 |
| 2026-04-23 04:30 | 1.11 | 235 | 8600 (1991) | 93 (2004) | 2160 | 120 | 136 | 174 | 215 | 1750 | 2940 | 3710 | 6070 | 7310 |
| 2026-04-23 03:30 | 1.14 | 244 | 8600 (1991) | 93 (2004) | 2160 | 120 | 136 | 174 | 215 | 1750 | 2940 | 3710 | 6070 | 7310 |
| 2026-04-23 02:30 | 1.15 | 247 | 8600 (1991) | 93 (2004) | 2160 | 120 | 136 | 174 | 215 | 1750 | 2940 | 3710 | 6070 | 7310 |
| 2026-04-23 01:30 | 1.18 | 256 | 8600 (1991) | 93 (2004) | 2160 | 120 | 136 | 174 | 215 | 1750 | 2940 | 3710 | 6070 | 7310 |
| 2026-04-23 00:30 | 1.20 | 262 | 8600 (1991) | 93 (2004) | 2160 | 120 | 136 | 174 | 215 | 1750 | 2940 | 3710 | 6070 | 7310 |
| 2026-04-22 23:30 | 1.23 | 271 | 8600 (1991) | 93 (2004) | 2160 | 120 | 136 | 174 | 215 | 1750 | 2940 | 3710 | 6070 | 7310 |
| 2026-04-22 22:30 | 1.26 | 281 | 8500 (1991) | 96 (2004) | 1870 | 118 | 148 | 238 | 303 | 967 | 2860 | 3330 | 5800 | 7470 |
| 2026-04-22 21:30 | 1.29 | 290 | 8500 (1991) | 96 (2004) | 1870 | 118 | 148 | 238 | 303 | 967 | 2860 | 3330 | 5800 | 7470 |
| 2026-04-22 20:30 | 1.33 | 303 | 8500 (1991) | 96 (2004) | 1870 | 118 | 148 | 238 | 303 | 967 | 2860 | 3330 | 5800 | 7470 |
| 2026-04-22 19:30 | 1.37 | 317 | 8500 (1991) | 96 (2004) | 1870 | 118 | 148 | 238 | 303 | 967 | 2860 | 3330 | 5800 | 7470 |
| 2026-04-22 18:30 | 1.42 | 334 | 8500 (1991) | 96 (2004) | 1870 | 118 | 148 | 238 | 303 | 967 | 2860 | 3330 | 5800 | 7470 |
| 2026-04-22 17:30 | 1.47 | 352 | 8500 (1991) | 96 (2004) | 1870 | 118 | 148 | 238 | 303 | 967 | 2860 | 3330 | 5800 | 7470 |
| 2026-04-22 16:30 | 1.52 | 371 | 8500 (1991) | 96 (2004) | 1870 | 118 | 148 | 238 | 303 | 967 | 2860 | 3330 | 5800 | 7470 |
| 2026-04-22 15:30 | 1.58 | 393 | 8500 (1991) | 96 (2004) | 1870 | 118 | 148 | 238 | 303 | 967 | 2860 | 3330 | 5800 | 7470 |
| 2026-04-22 14:30 | 1.64 | 417 | 8500 (1991) | 96 (2004) | 1870 | 118 | 148 | 238 | 303 | 967 | 2860 | 3330 | 5800 | 7470 |
| 2026-04-22 13:30 | 1.71 | 446 | 8500 (1991) | 96 (2004) | 1870 | 118 | 148 | 238 | 303 | 967 | 2860 | 3330 | 5800 | 7470 |
| 2026-04-22 12:30 | 1.79 | 481 | 8500 (1991) | 96 (2004) | 1870 | 118 | 148 | 238 | 303 | 967 | 2860 | 3330 | 5800 | 7470 |
| 2026-04-22 11:30 | 1.87 | 518 | 8500 (1991) | 96 (2004) | 1870 | 118 | 148 | 238 | 303 | 967 | 2860 | 3330 | 5800 | 7470 |
| 2026-04-22 10:30 | 1.97 | 567 | 8500 (1991) | 96 (2004) | 1870 | 118 | 148 | 238 | 303 | 967 | 2860 | 3330 | 5800 | 7470 |
| 2026-04-22 09:30 | 2.07 | 621 | 8500 (1991) | 96 (2004) | 1870 | 118 | 148 | 238 | 303 | 967 | 2860 | 3330 | 5800 | 7470 |
| 2026-04-22 08:30 | 2.17 | 680 | 8500 (1991) | 96 (2004) | 1870 | 118 | 148 | 238 | 303 | 967 | 2860 | 3330 | 5800 | 7470 |
| 2026-04-22 07:30 | 2.29 | 758 | 8500 (1991) | 96 (2004) | 1870 | 118 | 148 | 238 | 303 | 967 | 2860 | 3330 | 5800 | 7470 |
| 2026-04-22 06:30 | 2.42 | 850 | 8500 (1991) | 96 (2004) | 1870 | 118 | 148 | 238 | 303 | 967 | 2860 | 3330 | 5800 | 7470 |
| 2026-04-22 05:30 | 2.57 | 966 | 8500 (1991) | 96 (2004) | 1870 | 118 | 148 | 238 | 303 | 967 | 2860 | 3330 | 5800 | 7470 |
| 2026-04-22 04:30 | 2.73 | 1100 | 8500 (1991) | 96 (2004) | 1870 | 118 | 148 | 238 | 303 | 967 | 2860 | 3330 | 5800 | 7470 |
| 2026-04-22 03:30 | 2.90 | 1240 | 8500 (1991) | 96 (2004) | 1870 | 118 | 148 | 238 | 303 | 967 | 2860 | 3330 | 5800 | 7470 |
| 2026-04-22 02:30 | 3.08 | 1410 | 8500 (1991) | 96 (2004) | 1870 | 118 | 148 | 238 | 303 | 967 | 2860 | 3330 | 5800 | 7470 |
| 2026-04-22 01:30 | 3.28 | 1610 | 8500 (1991) | 96 (2004) | 1870 | 118 | 148 | 238 | 303 | 967 | 2860 | 3330 | 5800 | 7470 |
| 2026-04-22 00:30 | 3.47 | 1800 | 8500 (1991) | 96 (2004) | 1870 | 118 | 148 | 238 | 303 | 967 | 2860 | 3330 | 5800 | 7470 |
| 2026-04-21 23:30 | 3.59 | 1930 | 8500 (1991) | 96 (2004) | 1870 | 118 | 148 | 238 | 303 | 967 | 2860 | 3330 | 5800 | 7470 |
| 2026-04-21 22:30 | 3.45 | 1780 | 8160 (2008) | 82 (2004) | 1710 | 119 | 162 | 309 | 354 | 886 | 2340 | 2760 | 4570 | 7450 |
| 2026-04-21 21:30 | 2.59 | 982 | 8160 (2008) | 82 (2004) | 1710 | 119 | 162 | 309 | 354 | 886 | 2340 | 2760 | 4570 | 7450 |
| 2026-04-21 20:30 | 1.46 | 349 | 8160 (2008) | 82 (2004) | 1710 | 119 | 162 | 309 | 354 | 886 | 2340 | 2760 | 4570 | 7450 |
| 2026-04-21 19:30 | 1.24 | 275 | 8160 (2008) | 82 (2004) | 1710 | 119 | 162 | 309 | 354 | 886 | 2340 | 2760 | 4570 | 7450 |
| 2026-04-21 18:30 | 1.27 | 284 | 8160 (2008) | 82 (2004) | 1710 | 119 | 162 | 309 | 354 | 886 | 2340 | 2760 | 4570 | 7450 |
| 2026-04-21 17:30 | 1.29 | 290 | 8160 (2008) | 82 (2004) | 1710 | 119 | 162 | 309 | 354 | 886 | 2340 | 2760 | 4570 | 7450 |
| 2026-04-21 16:30 | 1.34 | 307 | 8160 (2008) | 82 (2004) | 1710 | 119 | 162 | 309 | 354 | 886 | 2340 | 2760 | 4570 | 7450 |
| 2026-04-21 15:30 | 1.38 | 320 | 8160 (2008) | 82 (2004) | 1710 | 119 | 162 | 309 | 354 | 886 | 2340 | 2760 | 4570 | 7450 |
| 2026-04-21 14:30 | 1.40 | 327 | 8160 (2008) | 82 (2004) | 1710 | 119 | 162 | 309 | 354 | 886 | 2340 | 2760 | 4570 | 7450 |
| 2026-04-21 13:30 | 1.47 | 352 | 8160 (2008) | 82 (2004) | 1710 | 119 | 162 | 309 | 354 | 886 | 2340 | 2760 | 4570 | 7450 |
| 2026-04-21 12:30 | 1.51 | 367 | 8160 (2008) | 82 (2004) | 1710 | 119 | 162 | 309 | 354 | 886 | 2340 | 2760 | 4570 | 7450 |
| 2026-04-21 11:30 | 1.58 | 393 | 8160 (2008) | 82 (2004) | 1710 | 119 | 162 | 309 | 354 | 886 | 2340 | 2760 | 4570 | 7450 |
| 2026-04-21 10:30 | 1.64 | 417 | 8160 (2008) | 82 (2004) | 1710 | 119 | 162 | 309 | 354 | 886 | 2340 | 2760 | 4570 | 7450 |
| 2026-04-21 09:30 | 1.71 | 446 | 8160 (2008) | 82 (2004) | 1710 | 119 | 162 | 309 | 354 | 886 | 2340 | 2760 | 4570 | 7450 |
| 2026-04-21 08:30 | 1.79 | 481 | 8160 (2008) | 82 (2004) | 1710 | 119 | 162 | 309 | 354 | 886 | 2340 | 2760 | 4570 | 7450 |
| 2026-04-21 07:30 | 1.87 | 518 | 8160 (2008) | 82 (2004) | 1710 | 119 | 162 | 309 | 354 | 886 | 2340 | 2760 | 4570 | 7450 |
| 2026-04-21 06:30 | 1.95 | 557 | 8160 (2008) | 82 (2004) | 1710 | 119 | 162 | 309 | 354 | 886 | 2340 | 2760 | 4570 | 7450 |
| 2026-04-21 05:30 | 2.05 | 610 | 8160 (2008) | 82 (2004) | 1710 | 119 | 162 | 309 | 354 | 886 | 2340 | 2760 | 4570 | 7450 |
| 2026-04-21 04:30 | 2.16 | 674 | 8160 (2008) | 82 (2004) | 1710 | 119 | 162 | 309 | 354 | 886 | 2340 | 2760 | 4570 | 7450 |
| 2026-04-21 03:30 | 2.28 | 751 | 8160 (2008) | 82 (2004) | 1710 | 119 | 162 | 309 | 354 | 886 | 2340 | 2760 | 4570 | 7450 |
| 2026-04-21 02:30 | 2.40 | 836 | 8160 (2008) | 82 (2004) | 1710 | 119 | 162 | 309 | 354 | 886 | 2340 | 2760 | 4570 | 7450 |
| 2026-04-21 01:30 | 2.51 | 919 | 8160 (2008) | 82 (2004) | 1710 | 119 | 162 | 309 | 354 | 886 | 2340 | 2760 | 4570 | 7450 |
| 2026-04-21 00:30 | 2.58 | 974 | 8160 (2008) | 82 (2004) | 1710 | 119 | 162 | 309 | 354 | 886 | 2340 | 2760 | 4570 | 7450 |
| 2026-04-20 23:30 | 2.49 | 903 | 8160 (2008) | 82 (2004) | 1710 | 119 | 162 | 309 | 354 | 886 | 2340 | 2760 | 4570 | 7450 |
| 2026-04-20 22:30 | 2.06 | 615 | 8150 (2008) | 78 (2004) | 1890 | 99 | 138 | 209 | 229 | 1020 | 2700 | 3430 | 6050 | 7330 |
| 2026-04-20 21:30 | 1.26 | 281 | 8150 (2008) | 78 (2004) | 1890 | 99 | 138 | 209 | 229 | 1020 | 2700 | 3430 | 6050 | 7330 |
| 2026-04-20 20:30 | 0.88 | 174 | 8150 (2008) | 78 (2004) | 1890 | 99 | 138 | 209 | 229 | 1020 | 2700 | 3430 | 6050 | 7330 |
| 2026-04-20 19:30 | 0.88 | 174 | 8150 (2008) | 78 (2004) | 1890 | 99 | 138 | 209 | 229 | 1020 | 2700 | 3430 | 6050 | 7330 |
| 2026-04-20 18:30 | 0.90 | 180 | 8150 (2008) | 78 (2004) | 1890 | 99 | 138 | 209 | 229 | 1020 | 2700 | 3430 | 6050 | 7330 |
| 2026-04-20 17:30 | 0.91 | 182 | 8150 (2008) | 78 (2004) | 1890 | 99 | 138 | 209 | 229 | 1020 | 2700 | 3430 | 6050 | 7330 |
| 2026-04-20 16:30 | 0.92 | 185 | 8150 (2008) | 78 (2004) | 1890 | 99 | 138 | 209 | 229 | 1020 | 2700 | 3430 | 6050 | 7330 |
| 2026-04-20 15:30 | 0.88 | 174 | 8150 (2008) | 78 (2004) | 1890 | 99 | 138 | 209 | 229 | 1020 | 2700 | 3430 | 6050 | 7330 |
| 2026-04-20 14:30 | 0.94 | 191 | 8150 (2008) | 78 (2004) | 1890 | 99 | 138 | 209 | 229 | 1020 | 2700 | 3430 | 6050 | 7330 |
| 2026-04-20 13:30 | 0.94 | 191 | 8150 (2008) | 78 (2004) | 1890 | 99 | 138 | 209 | 229 | 1020 | 2700 | 3430 | 6050 | 7330 |
| 2026-04-20 12:30 | 0.95 | 193 | 8150 (2008) | 78 (2004) | 1890 | 99 | 138 | 209 | 229 | 1020 | 2700 | 3430 | 6050 | 7330 |
| 2026-04-20 11:30 | 0.96 | 195 | 8150 (2008) | 78 (2004) | 1890 | 99 | 138 | 209 | 229 | 1020 | 2700 | 3430 | 6050 | 7330 |
| 2026-04-20 10:30 | 0.97 | 197 | 8150 (2008) | 78 (2004) | 1890 | 99 | 138 | 209 | 229 | 1020 | 2700 | 3430 | 6050 | 7330 |
| 2026-04-20 09:30 | 0.97 | 197 | 8150 (2008) | 78 (2004) | 1890 | 99 | 138 | 209 | 229 | 1020 | 2700 | 3430 | 6050 | 7330 |
| 2026-04-20 08:30 | 0.98 | 200 | 8150 (2008) | 78 (2004) | 1890 | 99 | 138 | 209 | 229 | 1020 | 2700 | 3430 | 6050 | 7330 |
| 2026-04-20 07:30 | 0.98 | 200 | 8150 (2008) | 78 (2004) | 1890 | 99 | 138 | 209 | 229 | 1020 | 2700 | 3430 | 6050 | 7330 |
| 2026-04-20 06:30 | 0.99 | 202 | 8150 (2008) | 78 (2004) | 1890 | 99 | 138 | 209 | 229 | 1020 | 2700 | 3430 | 6050 | 7330 |
| 2026-04-20 05:30 | 1.00 | 205 | 8150 (2008) | 78 (2004) | 1890 | 99 | 138 | 209 | 229 | 1020 | 2700 | 3430 | 6050 | 7330 |
| 2026-04-20 04:30 | 1.01 | 207 | 8150 (2008) | 78 (2004) | 1890 | 99 | 138 | 209 | 229 | 1020 | 2700 | 3430 | 6050 | 7330 |
| 2026-04-20 03:30 | 1.02 | 210 | 8150 (2008) | 78 (2004) | 1890 | 99 | 138 | 209 | 229 | 1020 | 2700 | 3430 | 6050 | 7330 |
| 2026-04-20 02:30 | 1.04 | 215 | 8150 (2008) | 78 (2004) | 1890 | 99 | 138 | 209 | 229 | 1020 | 2700 | 3430 | 6050 | 7330 |
| 2026-04-20 01:30 | 1.05 | 218 | 8150 (2008) | 78 (2004) | 1890 | 99 | 138 | 209 | 229 | 1020 | 2700 | 3430 | 6050 | 7330 |
| 2026-04-20 00:30 | 1.07 | 224 | 8150 (2008) | 78 (2004) | 1890 | 99 | 138 | 209 | 229 | 1020 | 2700 | 3430 | 6050 | 7330 |
| 2026-04-19 23:30 | 1.08 | 226 | 8150 (2008) | 78 (2004) | 1890 | 99 | 138 | 209 | 229 | 1020 | 2700 | 3430 | 6050 | 7330 |
| 2026-04-19 22:30 | 1.10 | 232 | 8140 (2008) | 69 (2004) | 1870 | 102 | 137 | 215 | 329 | 1170 | 3020 | 3120 | 4450 | 7320 |
| 2026-04-19 21:30 | 1.12 | 238 | 8140 (2008) | 69 (2004) | 1870 | 102 | 137 | 215 | 329 | 1170 | 3020 | 3120 | 4450 | 7320 |
| 2026-04-19 20:30 | 1.14 | 244 | 8140 (2008) | 69 (2004) | 1870 | 102 | 137 | 215 | 329 | 1170 | 3020 | 3120 | 4450 | 7320 |
| 2026-04-19 19:30 | 1.16 | 250 | 8140 (2008) | 69 (2004) | 1870 | 102 | 137 | 215 | 329 | 1170 | 3020 | 3120 | 4450 | 7320 |
| 2026-04-19 18:30 | 1.19 | 259 | 8140 (2008) | 69 (2004) | 1870 | 102 | 137 | 215 | 329 | 1170 | 3020 | 3120 | 4450 | 7320 |
| 2026-04-19 17:30 | 1.23 | 271 | 8140 (2008) | 69 (2004) | 1870 | 102 | 137 | 215 | 329 | 1170 | 3020 | 3120 | 4450 | 7320 |
| 2026-04-19 16:30 | 1.26 | 281 | 8140 (2008) | 69 (2004) | 1870 | 102 | 137 | 215 | 329 | 1170 | 3020 | 3120 | 4450 | 7320 |
| 2026-04-19 15:30 | 1.29 | 290 | 8140 (2008) | 69 (2004) | 1870 | 102 | 137 | 215 | 329 | 1170 | 3020 | 3120 | 4450 | 7320 |
| 2026-04-19 14:30 | 1.33 | 303 | 8140 (2008) | 69 (2004) | 1870 | 102 | 137 | 215 | 329 | 1170 | 3020 | 3120 | 4450 | 7320 |
| 2026-04-19 13:30 | 1.37 | 317 | 8140 (2008) | 69 (2004) | 1870 | 102 | 137 | 215 | 329 | 1170 | 3020 | 3120 | 4450 | 7320 |
| 2026-04-19 12:30 | 1.42 | 334 | 8140 (2008) | 69 (2004) | 1870 | 102 | 137 | 215 | 329 | 1170 | 3020 | 3120 | 4450 | 7320 |
| 2026-04-19 11:30 | 1.47 | 352 | 8140 (2008) | 69 (2004) | 1870 | 102 | 137 | 215 | 329 | 1170 | 3020 | 3120 | 4450 | 7320 |
| 2026-04-19 10:30 | 1.52 | 371 | 8140 (2008) | 69 (2004) | 1870 | 102 | 137 | 215 | 329 | 1170 | 3020 | 3120 | 4450 | 7320 |
| 2026-04-19 09:30 | 1.58 | 393 | 8140 (2008) | 69 (2004) | 1870 | 102 | 137 | 215 | 329 | 1170 | 3020 | 3120 | 4450 | 7320 |
| 2026-04-19 08:30 | 1.63 | 413 | 8140 (2008) | 69 (2004) | 1870 | 102 | 137 | 215 | 329 | 1170 | 3020 | 3120 | 4450 | 7320 |
| 2026-04-19 07:30 | 1.70 | 442 | 8140 (2008) | 69 (2004) | 1870 | 102 | 137 | 215 | 329 | 1170 | 3020 | 3120 | 4450 | 7320 |
| 2026-04-19 06:30 | 1.77 | 472 | 8140 (2008) | 69 (2004) | 1870 | 102 | 137 | 215 | 329 | 1170 | 3020 | 3120 | 4450 | 7320 |
| 2026-04-19 05:30 | 1.84 | 503 | 8140 (2008) | 69 (2004) | 1870 | 102 | 137 | 215 | 329 | 1170 | 3020 | 3120 | 4450 | 7320 |
| 2026-04-19 04:30 | 1.93 | 547 | 8140 (2008) | 69 (2004) | 1870 | 102 | 137 | 215 | 329 | 1170 | 3020 | 3120 | 4450 | 7320 |
| 2026-04-19 03:30 | 2.01 | 588 | 8140 (2008) | 69 (2004) | 1870 | 102 | 137 | 215 | 329 | 1170 | 3020 | 3120 | 4450 | 7320 |
| 2026-04-19 02:30 | 2.08 | 627 | 8140 (2008) | 69 (2004) | 1870 | 102 | 137 | 215 | 329 | 1170 | 3020 | 3120 | 4450 | 7320 |
| 2026-04-19 01:30 | 2.12 | 650 | 8140 (2008) | 69 (2004) | 1870 | 102 | 137 | 215 | 329 | 1170 | 3020 | 3120 | 4450 | 7320 |
| 2026-04-19 00:30 | 2.06 | 615 | 8140 (2008) | 69 (2004) | 1870 | 102 | 137 | 215 | 329 | 1170 | 3020 | 3120 | 4450 | 7320 |
| 2026-04-18 23:30 | 1.81 | 490 | 8140 (2008) | 69 (2004) | 1870 | 102 | 137 | 215 | 329 | 1170 | 3020 | 3120 | 4450 | 7320 |
| 2026-04-18 22:30 | 1.31 | 297 | 8140 (2008) | 72 (2004) | 2060 | 117 | 138 | 200 | 290 | 1350 | 2880 | 3440 | 6020 | 7340 |
| 2026-04-18 21:30 | 0.99 | 202 | 8140 (2008) | 72 (2004) | 2060 | 117 | 138 | 200 | 290 | 1350 | 2880 | 3440 | 6020 | 7340 |
| 2026-04-18 20:30 | 0.99 | 202 | 8140 (2008) | 72 (2004) | 2060 | 117 | 138 | 200 | 290 | 1350 | 2880 | 3440 | 6020 | 7340 |
| 2026-04-18 19:30 | 1.00 | 205 | 8140 (2008) | 72 (2004) | 2060 | 117 | 138 | 200 | 290 | 1350 | 2880 | 3440 | 6020 | 7340 |
| 2026-04-18 18:30 | 1.01 | 207 | 8140 (2008) | 72 (2004) | 2060 | 117 | 138 | 200 | 290 | 1350 | 2880 | 3440 | 6020 | 7340 |
| 2026-04-18 17:30 | 1.02 | 210 | 8140 (2008) | 72 (2004) | 2060 | 117 | 138 | 200 | 290 | 1350 | 2880 | 3440 | 6020 | 7340 |
| 2026-04-18 16:30 | 1.03 | 213 | 8140 (2008) | 72 (2004) | 2060 | 117 | 138 | 200 | 290 | 1350 | 2880 | 3440 | 6020 | 7340 |
| 2026-04-18 15:30 | 1.03 | 213 | 8140 (2008) | 72 (2004) | 2060 | 117 | 138 | 200 | 290 | 1350 | 2880 | 3440 | 6020 | 7340 |
| 2026-04-18 14:30 | 1.04 | 215 | 8140 (2008) | 72 (2004) | 2060 | 117 | 138 | 200 | 290 | 1350 | 2880 | 3440 | 6020 | 7340 |
| 2026-04-18 13:30 | 1.05 | 218 | 8140 (2008) | 72 (2004) | 2060 | 117 | 138 | 200 | 290 | 1350 | 2880 | 3440 | 6020 | 7340 |
| 2026-04-18 12:30 | 1.05 | 218 | 8140 (2008) | 72 (2004) | 2060 | 117 | 138 | 200 | 290 | 1350 | 2880 | 3440 | 6020 | 7340 |
| 2026-04-18 11:30 | 1.06 | 221 | 8140 (2008) | 72 (2004) | 2060 | 117 | 138 | 200 | 290 | 1350 | 2880 | 3440 | 6020 | 7340 |
| 2026-04-18 10:30 | 1.07 | 224 | 8140 (2008) | 72 (2004) | 2060 | 117 | 138 | 200 | 290 | 1350 | 2880 | 3440 | 6020 | 7340 |
| 2026-04-18 09:30 | 1.08 | 226 | 8140 (2008) | 72 (2004) | 2060 | 117 | 138 | 200 | 290 | 1350 | 2880 | 3440 | 6020 | 7340 |
| 2026-04-18 08:30 | 1.10 | 232 | 8140 (2008) | 72 (2004) | 2060 | 117 | 138 | 200 | 290 | 1350 | 2880 | 3440 | 6020 | 7340 |
| 2026-04-18 07:30 | 1.10 | 232 | 8140 (2008) | 72 (2004) | 2060 | 117 | 138 | 200 | 290 | 1350 | 2880 | 3440 | 6020 | 7340 |
| 2026-04-18 06:30 | 1.12 | 238 | 8140 (2008) | 72 (2004) | 2060 | 117 | 138 | 200 | 290 | 1350 | 2880 | 3440 | 6020 | 7340 |
| 2026-04-18 05:30 | 1.13 | 241 | 8140 (2008) | 72 (2004) | 2060 | 117 | 138 | 200 | 290 | 1350 | 2880 | 3440 | 6020 | 7340 |
| 2026-04-18 04:30 | 1.13 | 241 | 8140 (2008) | 72 (2004) | 2060 | 117 | 138 | 200 | 290 | 1350 | 2880 | 3440 | 6020 | 7340 |
| 2026-04-18 03:30 | 1.15 | 247 | 8140 (2008) | 72 (2004) | 2060 | 117 | 138 | 200 | 290 | 1350 | 2880 | 3440 | 6020 | 7340 |
| 2026-04-18 02:30 | 1.17 | 253 | 8140 (2008) | 72 (2004) | 2060 | 117 | 138 | 200 | 290 | 1350 | 2880 | 3440 | 6020 | 7340 |
| 2026-04-18 01:30 | 1.19 | 259 | 8140 (2008) | 72 (2004) | 2060 | 117 | 138 | 200 | 290 | 1350 | 2880 | 3440 | 6020 | 7340 |
| 2026-04-18 00:30 | 1.21 | 265 | 8140 (2008) | 72 (2004) | 2060 | 117 | 138 | 200 | 290 | 1350 | 2880 | 3440 | 6020 | 7340 |
| 2026-04-17 23:30 | 1.24 | 275 | 8140 (2008) | 72 (2004) | 2060 | 117 | 138 | 200 | 290 | 1350 | 2880 | 3440 | 6020 | 7340 |
| 2026-04-17 22:30 | 1.27 | 284 | 8100 (2008) | 77 (2004) | 2210 | 104 | 143 | 217 | 256 | 1110 | 3430 | 4320 | 7150 | 7520 |
| 2026-04-17 21:30 | 1.29 | 290 | 8100 (2008) | 77 (2004) | 2210 | 104 | 143 | 217 | 256 | 1110 | 3430 | 4320 | 7150 | 7520 |
| 2026-04-17 20:30 | 1.33 | 303 | 8100 (2008) | 77 (2004) | 2210 | 104 | 143 | 217 | 256 | 1110 | 3430 | 4320 | 7150 | 7520 |
| 2026-04-17 19:30 | 1.36 | 313 | 8100 (2008) | 77 (2004) | 2210 | 104 | 143 | 217 | 256 | 1110 | 3430 | 4320 | 7150 | 7520 |
| 2026-04-17 18:30 | 1.41 | 331 | 8100 (2008) | 77 (2004) | 2210 | 104 | 143 | 217 | 256 | 1110 | 3430 | 4320 | 7150 | 7520 |
| 2026-04-17 17:30 | 1.43 | 338 | 8100 (2008) | 77 (2004) | 2210 | 104 | 143 | 217 | 256 | 1110 | 3430 | 4320 | 7150 | 7520 |
| 2026-04-17 16:30 | 1.48 | 356 | 8100 (2008) | 77 (2004) | 2210 | 104 | 143 | 217 | 256 | 1110 | 3430 | 4320 | 7150 | 7520 |
| 2026-04-17 15:30 | 1.53 | 374 | 8100 (2008) | 77 (2004) | 2210 | 104 | 143 | 217 | 256 | 1110 | 3430 | 4320 | 7150 | 7520 |
| 2026-04-17 14:30 | 1.56 | 386 | 8100 (2008) | 77 (2004) | 2210 | 104 | 143 | 217 | 256 | 1110 | 3430 | 4320 | 7150 | 7520 |
| 2026-04-17 13:30 | 1.58 | 393 | 8100 (2008) | 77 (2004) | 2210 | 104 | 143 | 217 | 256 | 1110 | 3430 | 4320 | 7150 | 7520 |
| 2026-04-17 12:30 | 1.68 | 433 | 8100 (2008) | 77 (2004) | 2210 | 104 | 143 | 217 | 256 | 1110 | 3430 | 4320 | 7150 | 7520 |
| 2026-04-17 11:30 | 1.80 | 485 | 8100 (2008) | 77 (2004) | 2210 | 104 | 143 | 217 | 256 | 1110 | 3430 | 4320 | 7150 | 7520 |
| 2026-04-17 10:30 | 1.88 | 522 | 8100 (2008) | 77 (2004) | 2210 | 104 | 143 | 217 | 256 | 1110 | 3430 | 4320 | 7150 | 7520 |
| 2026-04-17 09:30 | 1.97 | 567 | 8100 (2008) | 77 (2004) | 2210 | 104 | 143 | 217 | 256 | 1110 | 3430 | 4320 | 7150 | 7520 |
| 2026-04-17 08:30 | 2.05 | 610 | 8100 (2008) | 77 (2004) | 2210 | 104 | 143 | 217 | 256 | 1110 | 3430 | 4320 | 7150 | 7520 |
| 2026-04-17 07:30 | 2.16 | 674 | 8100 (2008) | 77 (2004) | 2210 | 104 | 143 | 217 | 256 | 1110 | 3430 | 4320 | 7150 | 7520 |
| 2026-04-17 06:30 | 2.27 | 745 | 8100 (2008) | 77 (2004) | 2210 | 104 | 143 | 217 | 256 | 1110 | 3430 | 4320 | 7150 | 7520 |
| 2026-04-17 05:30 | 2.39 | 829 | 8100 (2008) | 77 (2004) | 2210 | 104 | 143 | 217 | 256 | 1110 | 3430 | 4320 | 7150 | 7520 |
| 2026-04-17 04:30 | 2.52 | 926 | 8100 (2008) | 77 (2004) | 2210 | 104 | 143 | 217 | 256 | 1110 | 3430 | 4320 | 7150 | 7520 |
| 2026-04-17 03:30 | 2.67 | 1050 | 8100 (2008) | 77 (2004) | 2210 | 104 | 143 | 217 | 256 | 1110 | 3430 | 4320 | 7150 | 7520 |
| 2026-04-17 02:30 | 2.83 | 1180 | 8100 (2008) | 77 (2004) | 2210 | 104 | 143 | 217 | 256 | 1110 | 3430 | 4320 | 7150 | 7520 |
| 2026-04-17 01:30 | 3.00 | 1330 | 8100 (2008) | 77 (2004) | 2210 | 104 | 143 | 217 | 256 | 1110 | 3430 | 4320 | 7150 | 7520 |
| 2026-04-17 00:30 | 3.18 | 1510 | 8100 (2008) | 77 (2004) | 2210 | 104 | 143 | 217 | 256 | 1110 | 3430 | 4320 | 7150 | 7520 |
| 2026-04-16 23:30 | 3.34 | 1670 | 8100 (2008) | 77 (2004) | 2210 | 104 | 143 | 217 | 256 | 1110 | 3430 | 4320 | 7150 | 7520 |
| 2026-04-16 22:30 | 3.46 | 1790 | 8070 (2008) | 80 (2004) | 2140 | 106 | 132 | 225 | 348 | 1060 | 3160 | 3850 | 7110 | 7320 |
| 2026-04-16 21:30 | 3.27 | 1600 | 8070 (2008) | 80 (2004) | 2140 | 106 | 132 | 225 | 348 | 1060 | 3160 | 3850 | 7110 | 7320 |
| 2026-04-16 20:30 | 2.49 | 903 | 8070 (2008) | 80 (2004) | 2140 | 106 | 132 | 225 | 348 | 1060 | 3160 | 3850 | 7110 | 7320 |
| 2026-04-16 19:30 | 1.74 | 459 | 8070 (2008) | 80 (2004) | 2140 | 106 | 132 | 225 | 348 | 1060 | 3160 | 3850 | 7110 | 7320 |
| 2026-04-16 18:30 | 1.71 | 446 | 8070 (2008) | 80 (2004) | 2140 | 106 | 132 | 225 | 348 | 1060 | 3160 | 3850 | 7110 | 7320 |
| 2026-04-16 17:30 | 1.78 | 476 | 8070 (2008) | 80 (2004) | 2140 | 106 | 132 | 225 | 348 | 1060 | 3160 | 3850 | 7110 | 7320 |
| 2026-04-16 16:30 | 1.85 | 508 | 8070 (2008) | 80 (2004) | 2140 | 106 | 132 | 225 | 348 | 1060 | 3160 | 3850 | 7110 | 7320 |
| 2026-04-16 15:30 | 1.89 | 527 | 8070 (2008) | 80 (2004) | 2140 | 106 | 132 | 225 | 348 | 1060 | 3160 | 3850 | 7110 | 7320 |
| 2026-04-16 14:30 | 1.97 | 567 | 8070 (2008) | 80 (2004) | 2140 | 106 | 132 | 225 | 348 | 1060 | 3160 | 3850 | 7110 | 7320 |
| 2026-04-16 13:30 | 2.04 | 604 | 8070 (2008) | 80 (2004) | 2140 | 106 | 132 | 225 | 348 | 1060 | 3160 | 3850 | 7110 | 7320 |
| 2026-04-16 12:30 | 2.11 | 644 | 8070 (2008) | 80 (2004) | 2140 | 106 | 132 | 225 | 348 | 1060 | 3160 | 3850 | 7110 | 7320 |
| 2026-04-16 11:30 | 2.18 | 686 | 8070 (2008) | 80 (2004) | 2140 | 106 | 132 | 225 | 348 | 1060 | 3160 | 3850 | 7110 | 7320 |
| 2026-04-16 10:30 | 2.26 | 738 | 8070 (2008) | 80 (2004) | 2140 | 106 | 132 | 225 | 348 | 1060 | 3160 | 3850 | 7110 | 7320 |
| 2026-04-16 09:30 | 2.37 | 814 | 8070 (2008) | 80 (2004) | 2140 | 106 | 132 | 225 | 348 | 1060 | 3160 | 3850 | 7110 | 7320 |
| 2026-04-16 08:30 | 2.48 | 895 | 8070 (2008) | 80 (2004) | 2140 | 106 | 132 | 225 | 348 | 1060 | 3160 | 3850 | 7110 | 7320 |
| 2026-04-16 07:30 | 2.60 | 990 | 8070 (2008) | 80 (2004) | 2140 | 106 | 132 | 225 | 348 | 1060 | 3160 | 3850 | 7110 | 7320 |
| 2026-04-16 06:30 | 2.73 | 1100 | 8070 (2008) | 80 (2004) | 2140 | 106 | 132 | 225 | 348 | 1060 | 3160 | 3850 | 7110 | 7320 |
| 2026-04-16 05:30 | 2.86 | 1210 | 8070 (2008) | 80 (2004) | 2140 | 106 | 132 | 225 | 348 | 1060 | 3160 | 3850 | 7110 | 7320 |
| 2026-04-16 04:30 | 3.02 | 1350 | 8070 (2008) | 80 (2004) | 2140 | 106 | 132 | 225 | 348 | 1060 | 3160 | 3850 | 7110 | 7320 |
| 2026-04-16 03:30 | 3.17 | 1500 | 8070 (2008) | 80 (2004) | 2140 | 106 | 132 | 225 | 348 | 1060 | 3160 | 3850 | 7110 | 7320 |
| 2026-04-16 02:30 | 3.35 | 1680 | 8070 (2008) | 80 (2004) | 2140 | 106 | 132 | 225 | 348 | 1060 | 3160 | 3850 | 7110 | 7320 |
| 2026-04-16 01:30 | 3.57 | 1910 | 8070 (2008) | 80 (2004) | 2140 | 106 | 132 | 225 | 348 | 1060 | 3160 | 3850 | 7110 | 7320 |
| 2026-04-16 00:30 | 3.77 | 2130 | 8070 (2008) | 80 (2004) | 2140 | 106 | 132 | 225 | 348 | 1060 | 3160 | 3850 | 7110 | 7320 |
| 2026-04-15 23:00 | 3.89 | 2270 | 8070 (2008) | 80 (2004) | 2140 | 106 | 132 | 225 | 348 | 1060 | 3160 | 3850 | 7110 | 7320 |
| 2026-04-15 22:30 | 3.82 | 2190 | 8060 (2008) | 86 (2004) | 2100 | 128 | 165 | 268 | 352 | 1160 | 3450 | 3880 | 6510 | 7190 |
| 2026-04-15 21:30 | 3.16 | 1490 | 8060 (2008) | 86 (2004) | 2100 | 128 | 165 | 268 | 352 | 1160 | 3450 | 3880 | 6510 | 7190 |
| 2026-04-15 20:30 | 1.80 | 485 | 8060 (2008) | 86 (2004) | 2100 | 128 | 165 | 268 | 352 | 1160 | 3450 | 3880 | 6510 | 7190 |
| 2026-04-15 19:30 | 1.15 | 247 | 8060 (2008) | 86 (2004) | 2100 | 128 | 165 | 268 | 352 | 1160 | 3450 | 3880 | 6510 | 7190 |
| 2026-04-15 18:30 | 1.16 | 250 | 8060 (2008) | 86 (2004) | 2100 | 128 | 165 | 268 | 352 | 1160 | 3450 | 3880 | 6510 | 7190 |
| 2026-04-15 17:30 | 1.19 | 259 | 8060 (2008) | 86 (2004) | 2100 | 128 | 165 | 268 | 352 | 1160 | 3450 | 3880 | 6510 | 7190 |
| 2026-04-15 16:30 | 1.21 | 265 | 8060 (2008) | 86 (2004) | 2100 | 128 | 165 | 268 | 352 | 1160 | 3450 | 3880 | 6510 | 7190 |
| 2026-04-15 15:30 | 1.25 | 278 | 8060 (2008) | 86 (2004) | 2100 | 128 | 165 | 268 | 352 | 1160 | 3450 | 3880 | 6510 | 7190 |
| 2026-04-15 14:30 | 1.27 | 284 | 8060 (2008) | 86 (2004) | 2100 | 128 | 165 | 268 | 352 | 1160 | 3450 | 3880 | 6510 | 7190 |
| 2026-04-15 13:30 | 1.33 | 303 | 8060 (2008) | 86 (2004) | 2100 | 128 | 165 | 268 | 352 | 1160 | 3450 | 3880 | 6510 | 7190 |
| 2026-04-15 12:30 | 1.36 | 313 | 8060 (2008) | 86 (2004) | 2100 | 128 | 165 | 268 | 352 | 1160 | 3450 | 3880 | 6510 | 7190 |
| 2026-04-15 11:30 | 1.41 | 331 | 8060 (2008) | 86 (2004) | 2100 | 128 | 165 | 268 | 352 | 1160 | 3450 | 3880 | 6510 | 7190 |
| 2026-04-15 10:30 | 1.46 | 349 | 8060 (2008) | 86 (2004) | 2100 | 128 | 165 | 268 | 352 | 1160 | 3450 | 3880 | 6510 | 7190 |
| 2026-04-15 09:30 | 1.49 | 360 | 8060 (2008) | 86 (2004) | 2100 | 128 | 165 | 268 | 352 | 1160 | 3450 | 3880 | 6510 | 7190 |
| 2026-04-15 08:30 | 1.56 | 386 | 8060 (2008) | 86 (2004) | 2100 | 128 | 165 | 268 | 352 | 1160 | 3450 | 3880 | 6510 | 7190 |
| 2026-04-15 07:30 | 1.63 | 413 | 8060 (2008) | 86 (2004) | 2100 | 128 | 165 | 268 | 352 | 1160 | 3450 | 3880 | 6510 | 7190 |
| 2026-04-15 06:30 | 1.70 | 442 | 8060 (2008) | 86 (2004) | 2100 | 128 | 165 | 268 | 352 | 1160 | 3450 | 3880 | 6510 | 7190 |
| 2026-04-15 05:30 | 1.78 | 476 | 8060 (2008) | 86 (2004) | 2100 | 128 | 165 | 268 | 352 | 1160 | 3450 | 3880 | 6510 | 7190 |
| 2026-04-15 04:30 | 1.86 | 513 | 8060 (2008) | 86 (2004) | 2100 | 128 | 165 | 268 | 352 | 1160 | 3450 | 3880 | 6510 | 7190 |
| 2026-04-15 03:30 | 1.95 | 557 | 8060 (2008) | 86 (2004) | 2100 | 128 | 165 | 268 | 352 | 1160 | 3450 | 3880 | 6510 | 7190 |
| 2026-04-15 02:30 | 2.05 | 610 | 8060 (2008) | 86 (2004) | 2100 | 128 | 165 | 268 | 352 | 1160 | 3450 | 3880 | 6510 | 7190 |
| 2026-04-15 01:30 | 2.15 | 668 | 8060 (2008) | 86 (2004) | 2100 | 128 | 165 | 268 | 352 | 1160 | 3450 | 3880 | 6510 | 7190 |
| 2026-04-15 00:30 | 2.25 | 731 | 8060 (2008) | 86 (2004) | 2100 | 128 | 165 | 268 | 352 | 1160 | 3450 | 3880 | 6510 | 7190 |
| 2026-04-14 23:30 | 2.35 | 800 | 8060 (2008) | 86 (2004) | 2100 | 128 | 165 | 268 | 352 | 1160 | 3450 | 3880 | 6510 | 7190 |
| 2026-04-14 22:30 | 2.37 | 814 | 7680 (2008) | 102 (2004) | 2060 | 126 | 150 | 376 | 542 | 1280 | 2790 | 3310 | 6580 | 7200 |
| 2026-04-14 21:30 | 2.27 | 745 | 7680 (2008) | 102 (2004) | 2060 | 126 | 150 | 376 | 542 | 1280 | 2790 | 3310 | 6580 | 7200 |
| 2026-04-14 20:30 | 1.88 | 522 | 7680 (2008) | 102 (2004) | 2060 | 126 | 150 | 376 | 542 | 1280 | 2790 | 3310 | 6580 | 7200 |
| 2026-04-14 19:30 | 1.47 | 352 | 7680 (2008) | 102 (2004) | 2060 | 126 | 150 | 376 | 542 | 1280 | 2790 | 3310 | 6580 | 7200 |
| 2026-04-14 18:30 | 1.48 | 356 | 7680 (2008) | 102 (2004) | 2060 | 126 | 150 | 376 | 542 | 1280 | 2790 | 3310 | 6580 | 7200 |
| 2026-04-14 17:30 | 1.53 | 374 | 7680 (2008) | 102 (2004) | 2060 | 126 | 150 | 376 | 542 | 1280 | 2790 | 3310 | 6580 | 7200 |
| 2026-04-14 16:30 | 1.60 | 401 | 7680 (2008) | 102 (2004) | 2060 | 126 | 150 | 376 | 542 | 1280 | 2790 | 3310 | 6580 | 7200 |
| 2026-04-14 15:30 | 1.65 | 421 | 7680 (2008) | 102 (2004) | 2060 | 126 | 150 | 376 | 542 | 1280 | 2790 | 3310 | 6580 | 7200 |
| 2026-04-14 14:30 | 1.75 | 463 | 7680 (2008) | 102 (2004) | 2060 | 126 | 150 | 376 | 542 | 1280 | 2790 | 3310 | 6580 | 7200 |
| 2026-04-14 13:30 | 1.81 | 490 | 7680 (2008) | 102 (2004) | 2060 | 126 | 150 | 376 | 542 | 1280 | 2790 | 3310 | 6580 | 7200 |
| 2026-04-14 12:30 | 1.87 | 518 | 7680 (2008) | 102 (2004) | 2060 | 126 | 150 | 376 | 542 | 1280 | 2790 | 3310 | 6580 | 7200 |
| 2026-04-14 11:30 | 2.00 | 582 | 7680 (2008) | 102 (2004) | 2060 | 126 | 150 | 376 | 542 | 1280 | 2790 | 3310 | 6580 | 7200 |
| 2026-04-14 09:30 | 2.22 | 712 | 7680 (2008) | 102 (2004) | 2060 | 126 | 150 | 376 | 542 | 1280 | 2790 | 3310 | 6580 | 7200 |
| 2026-04-14 08:30 | 2.35 | 800 | 7680 (2008) | 102 (2004) | 2060 | 126 | 150 | 376 | 542 | 1280 | 2790 | 3310 | 6580 | 7200 |
| 2026-04-14 07:30 | 2.49 | 903 | 7680 (2008) | 102 (2004) | 2060 | 126 | 150 | 376 | 542 | 1280 | 2790 | 3310 | 6580 | 7200 |
| 2026-04-14 06:30 | 2.64 | 1020 | 7680 (2008) | 102 (2004) | 2060 | 126 | 150 | 376 | 542 | 1280 | 2790 | 3310 | 6580 | 7200 |
| 2026-04-14 05:30 | 2.81 | 1160 | 7680 (2008) | 102 (2004) | 2060 | 126 | 150 | 376 | 542 | 1280 | 2790 | 3310 | 6580 | 7200 |
| 2026-04-14 04:30 | 2.99 | 1320 | 7680 (2008) | 102 (2004) | 2060 | 126 | 150 | 376 | 542 | 1280 | 2790 | 3310 | 6580 | 7200 |
| 2026-04-14 03:30 | 3.18 | 1510 | 7680 (2008) | 102 (2004) | 2060 | 126 | 150 | 376 | 542 | 1280 | 2790 | 3310 | 6580 | 7200 |
| 2026-04-14 02:30 | 3.39 | 1720 | 7680 (2008) | 102 (2004) | 2060 | 126 | 150 | 376 | 542 | 1280 | 2790 | 3310 | 6580 | 7200 |
| 2026-04-14 01:30 | 3.61 | 1960 | 7680 (2008) | 102 (2004) | 2060 | 126 | 150 | 376 | 542 | 1280 | 2790 | 3310 | 6580 | 7200 |
| 2026-04-14 00:30 | 3.82 | 2190 | 7680 (2008) | 102 (2004) | 2060 | 126 | 150 | 376 | 542 | 1280 | 2790 | 3310 | 6580 | 7200 |
| 2026-04-13 23:30 | 4.03 | 2440 | 7680 (2008) | 102 (2004) | 2060 | 126 | 150 | 376 | 542 | 1280 | 2790 | 3310 | 6580 | 7200 |
| 2026-04-13 22:30 | 4.07 | 2480 | 7440 (1977) | 113 (1981) | 1930 | 131 | 209 | 327 | 361 | 1180 | 2690 | 3380 | 5370 | 7160 |
| 2026-04-13 21:30 | 3.56 | 1900 | 7440 (1977) | 113 (1981) | 1930 | 131 | 209 | 327 | 361 | 1180 | 2690 | 3380 | 5370 | 7160 |
| 2026-04-13 20:30 | 2.13 | 656 | 7440 (1977) | 113 (1981) | 1930 | 131 | 209 | 327 | 361 | 1180 | 2690 | 3380 | 5370 | 7160 |
| 2026-04-13 19:30 | 0.98 | 200 | 7440 (1977) | 113 (1981) | 1930 | 131 | 209 | 327 | 361 | 1180 | 2690 | 3380 | 5370 | 7160 |
| 2026-04-13 18:30 | 0.86 | 168 | 7440 (1977) | 113 (1981) | 1930 | 131 | 209 | 327 | 361 | 1180 | 2690 | 3380 | 5370 | 7160 |
| 2026-04-13 17:30 | 0.81 | 156 | 7440 (1977) | 113 (1981) | 1930 | 131 | 209 | 327 | 361 | 1180 | 2690 | 3380 | 5370 | 7160 |
| 2026-04-13 16:30 | 0.86 | 168 | 7440 (1977) | 113 (1981) | 1930 | 131 | 209 | 327 | 361 | 1180 | 2690 | 3380 | 5370 | 7160 |
| 2026-04-13 15:30 | 0.87 | 171 | 7440 (1977) | 113 (1981) | 1930 | 131 | 209 | 327 | 361 | 1180 | 2690 | 3380 | 5370 | 7160 |
| 2026-04-13 14:30 | 0.89 | 177 | 7440 (1977) | 113 (1981) | 1930 | 131 | 209 | 327 | 361 | 1180 | 2690 | 3380 | 5370 | 7160 |
| 2026-04-13 13:30 | 0.89 | 177 | 7440 (1977) | 113 (1981) | 1930 | 131 | 209 | 327 | 361 | 1180 | 2690 | 3380 | 5370 | 7160 |
| 2026-04-13 12:30 | 0.90 | 180 | 7440 (1977) | 113 (1981) | 1930 | 131 | 209 | 327 | 361 | 1180 | 2690 | 3380 | 5370 | 7160 |
| 2026-04-13 11:30 | 0.91 | 182 | 7440 (1977) | 113 (1981) | 1930 | 131 | 209 | 327 | 361 | 1180 | 2690 | 3380 | 5370 | 7160 |
| 2026-04-13 10:30 | 0.91 | 182 | 7440 (1977) | 113 (1981) | 1930 | 131 | 209 | 327 | 361 | 1180 | 2690 | 3380 | 5370 | 7160 |
| 2026-04-13 09:30 | 0.92 | 185 | 7440 (1977) | 113 (1981) | 1930 | 131 | 209 | 327 | 361 | 1180 | 2690 | 3380 | 5370 | 7160 |
| 2026-04-13 08:30 | 0.92 | 185 | 7440 (1977) | 113 (1981) | 1930 | 131 | 209 | 327 | 361 | 1180 | 2690 | 3380 | 5370 | 7160 |
| 2026-04-13 07:30 | 0.93 | 188 | 7440 (1977) | 113 (1981) | 1930 | 131 | 209 | 327 | 361 | 1180 | 2690 | 3380 | 5370 | 7160 |
| 2026-04-13 06:30 | 0.94 | 191 | 7440 (1977) | 113 (1981) | 1930 | 131 | 209 | 327 | 361 | 1180 | 2690 | 3380 | 5370 | 7160 |
| 2026-04-13 05:30 | 0.95 | 193 | 7440 (1977) | 113 (1981) | 1930 | 131 | 209 | 327 | 361 | 1180 | 2690 | 3380 | 5370 | 7160 |
| 2026-04-13 04:30 | 0.96 | 195 | 7440 (1977) | 113 (1981) | 1930 | 131 | 209 | 327 | 361 | 1180 | 2690 | 3380 | 5370 | 7160 |
| 2026-04-13 03:30 | 0.97 | 197 | 7440 (1977) | 113 (1981) | 1930 | 131 | 209 | 327 | 361 | 1180 | 2690 | 3380 | 5370 | 7160 |
| 2026-04-13 02:30 | 0.99 | 202 | 7440 (1977) | 113 (1981) | 1930 | 131 | 209 | 327 | 361 | 1180 | 2690 | 3380 | 5370 | 7160 |
| 2026-04-13 01:30 | 1.00 | 205 | 7440 (1977) | 113 (1981) | 1930 | 131 | 209 | 327 | 361 | 1180 | 2690 | 3380 | 5370 | 7160 |
| 2026-04-13 00:30 | 1.01 | 207 | 7440 (1977) | 113 (1981) | 1930 | 131 | 209 | 327 | 361 | 1180 | 2690 | 3380 | 5370 | 7160 |
| 2026-04-12 23:30 | 1.02 | 210 | 7440 (1977) | 113 (1981) | 1930 | 131 | 209 | 327 | 361 | 1180 | 2690 | 3380 | 5370 | 7160 |
| 2026-04-12 22:30 | 1.04 | 215 | 7680 (2020) | 82 (2004) | 1950 | 127 | 154 | 220 | 334 | 876 | 2950 | 3620 | 6400 | 7450 |
| 2026-04-12 21:30 | 1.05 | 218 | 7680 (2020) | 82 (2004) | 1950 | 127 | 154 | 220 | 334 | 876 | 2950 | 3620 | 6400 | 7450 |
| 2026-04-12 20:30 | 1.07 | 224 | 7680 (2020) | 82 (2004) | 1950 | 127 | 154 | 220 | 334 | 876 | 2950 | 3620 | 6400 | 7450 |
| 2026-04-12 19:30 | 1.09 | 229 | 7680 (2020) | 82 (2004) | 1950 | 127 | 154 | 220 | 334 | 876 | 2950 | 3620 | 6400 | 7450 |
| 2026-04-12 18:30 | 1.11 | 235 | 7680 (2020) | 82 (2004) | 1950 | 127 | 154 | 220 | 334 | 876 | 2950 | 3620 | 6400 | 7450 |
| 2026-04-12 17:30 | 1.12 | 238 | 7680 (2020) | 82 (2004) | 1950 | 127 | 154 | 220 | 334 | 876 | 2950 | 3620 | 6400 | 7450 |
| 2026-04-12 16:30 | 1.16 | 250 | 7680 (2020) | 82 (2004) | 1950 | 127 | 154 | 220 | 334 | 876 | 2950 | 3620 | 6400 | 7450 |
| 2026-04-12 15:30 | 1.18 | 256 | 7680 (2020) | 82 (2004) | 1950 | 127 | 154 | 220 | 334 | 876 | 2950 | 3620 | 6400 | 7450 |
| 2026-04-12 14:30 | 1.22 | 268 | 7680 (2020) | 82 (2004) | 1950 | 127 | 154 | 220 | 334 | 876 | 2950 | 3620 | 6400 | 7450 |
| 2026-04-12 13:30 | 1.24 | 275 | 7680 (2020) | 82 (2004) | 1950 | 127 | 154 | 220 | 334 | 876 | 2950 | 3620 | 6400 | 7450 |
| 2026-04-12 12:30 | 1.28 | 287 | 7680 (2020) | 82 (2004) | 1950 | 127 | 154 | 220 | 334 | 876 | 2950 | 3620 | 6400 | 7450 |
| 2026-04-12 11:30 | 1.27 | 284 | 7680 (2020) | 82 (2004) | 1950 | 127 | 154 | 220 | 334 | 876 | 2950 | 3620 | 6400 | 7450 |
| 2026-04-12 10:30 | 1.31 | 297 | 7680 (2020) | 82 (2004) | 1950 | 127 | 154 | 220 | 334 | 876 | 2950 | 3620 | 6400 | 7450 |
| 2026-04-12 09:30 | 1.38 | 320 | 7680 (2020) | 82 (2004) | 1950 | 127 | 154 | 220 | 334 | 876 | 2950 | 3620 | 6400 | 7450 |
| 2026-04-12 08:30 | 1.42 | 334 | 7680 (2020) | 82 (2004) | 1950 | 127 | 154 | 220 | 334 | 876 | 2950 | 3620 | 6400 | 7450 |
| 2026-04-12 07:30 | 1.49 | 360 | 7680 (2020) | 82 (2004) | 1950 | 127 | 154 | 220 | 334 | 876 | 2950 | 3620 | 6400 | 7450 |
| 2026-04-12 06:30 | 1.54 | 378 | 7680 (2020) | 82 (2004) | 1950 | 127 | 154 | 220 | 334 | 876 | 2950 | 3620 | 6400 | 7450 |
| 2026-04-12 05:30 | 1.60 | 401 | 7680 (2020) | 82 (2004) | 1950 | 127 | 154 | 220 | 334 | 876 | 2950 | 3620 | 6400 | 7450 |
| 2026-04-12 04:30 | 1.67 | 429 | 7680 (2020) | 82 (2004) | 1950 | 127 | 154 | 220 | 334 | 876 | 2950 | 3620 | 6400 | 7450 |
| 2026-04-12 03:30 | 1.74 | 459 | 7680 (2020) | 82 (2004) | 1950 | 127 | 154 | 220 | 334 | 876 | 2950 | 3620 | 6400 | 7450 |
| 2026-04-12 02:30 | 1.81 | 490 | 7680 (2020) | 82 (2004) | 1950 | 127 | 154 | 220 | 334 | 876 | 2950 | 3620 | 6400 | 7450 |
| 2026-04-12 01:30 | 1.86 | 513 | 7680 (2020) | 82 (2004) | 1950 | 127 | 154 | 220 | 334 | 876 | 2950 | 3620 | 6400 | 7450 |
| 2026-04-12 00:30 | 1.89 | 527 | 7680 (2020) | 82 (2004) | 1950 | 127 | 154 | 220 | 334 | 876 | 2950 | 3620 | 6400 | 7450 |
| 2026-04-11 23:30 | 1.86 | 513 | 7680 (2020) | 82 (2004) | 1950 | 127 | 154 | 220 | 334 | 876 | 2950 | 3620 | 6400 | 7450 |
| 2026-04-11 22:30 | 1.69 | 438 | 7800 (1977) | 89 (2004) | 2180 | 149 | 169 | 243 | 315 | 944 | 3440 | 4160 | 6960 | 7360 |
| 2026-04-11 21:30 | 1.39 | 324 | 7800 (1977) | 89 (2004) | 2180 | 149 | 169 | 243 | 315 | 944 | 3440 | 4160 | 6960 | 7360 |
| 2026-04-11 20:30 | 1.21 | 265 | 7800 (1977) | 89 (2004) | 2180 | 149 | 169 | 243 | 315 | 944 | 3440 | 4160 | 6960 | 7360 |
| 2026-04-11 19:30 | 1.24 | 275 | 7800 (1977) | 89 (2004) | 2180 | 149 | 169 | 243 | 315 | 944 | 3440 | 4160 | 6960 | 7360 |
| 2026-04-11 18:30 | 1.28 | 287 | 7800 (1977) | 89 (2004) | 2180 | 149 | 169 | 243 | 315 | 944 | 3440 | 4160 | 6960 | 7360 |
| 2026-04-11 17:30 | 1.32 | 300 | 7800 (1977) | 89 (2004) | 2180 | 149 | 169 | 243 | 315 | 944 | 3440 | 4160 | 6960 | 7360 |
| 2026-04-11 16:30 | 1.37 | 317 | 7800 (1977) | 89 (2004) | 2180 | 149 | 169 | 243 | 315 | 944 | 3440 | 4160 | 6960 | 7360 |
| 2026-04-11 15:30 | 1.41 | 331 | 7800 (1977) | 89 (2004) | 2180 | 149 | 169 | 243 | 315 | 944 | 3440 | 4160 | 6960 | 7360 |
| 2026-04-11 14:30 | 1.40 | 327 | 7800 (1977) | 89 (2004) | 2180 | 149 | 169 | 243 | 315 | 944 | 3440 | 4160 | 6960 | 7360 |
| 2026-04-11 13:30 | 1.52 | 371 | 7800 (1977) | 89 (2004) | 2180 | 149 | 169 | 243 | 315 | 944 | 3440 | 4160 | 6960 | 7360 |
| 2026-04-11 12:30 | 1.57 | 390 | 7800 (1977) | 89 (2004) | 2180 | 149 | 169 | 243 | 315 | 944 | 3440 | 4160 | 6960 | 7360 |
| 2026-04-11 11:30 | 1.64 | 417 | 7800 (1977) | 89 (2004) | 2180 | 149 | 169 | 243 | 315 | 944 | 3440 | 4160 | 6960 | 7360 |
| 2026-04-11 10:30 | 1.71 | 446 | 7800 (1977) | 89 (2004) | 2180 | 149 | 169 | 243 | 315 | 944 | 3440 | 4160 | 6960 | 7360 |
| 2026-04-11 09:30 | 1.78 | 476 | 7800 (1977) | 89 (2004) | 2180 | 149 | 169 | 243 | 315 | 944 | 3440 | 4160 | 6960 | 7360 |
| 2026-04-11 08:30 | 1.87 | 518 | 7800 (1977) | 89 (2004) | 2180 | 149 | 169 | 243 | 315 | 944 | 3440 | 4160 | 6960 | 7360 |
| 2026-04-11 07:30 | 1.96 | 562 | 7800 (1977) | 89 (2004) | 2180 | 149 | 169 | 243 | 315 | 944 | 3440 | 4160 | 6960 | 7360 |
| 2026-04-11 06:30 | 2.07 | 621 | 7800 (1977) | 89 (2004) | 2180 | 149 | 169 | 243 | 315 | 944 | 3440 | 4160 | 6960 | 7360 |
| 2026-04-11 05:30 | 2.18 | 686 | 7800 (1977) | 89 (2004) | 2180 | 149 | 169 | 243 | 315 | 944 | 3440 | 4160 | 6960 | 7360 |
| 2026-04-11 04:30 | 2.31 | 772 | 7800 (1977) | 89 (2004) | 2180 | 149 | 169 | 243 | 315 | 944 | 3440 | 4160 | 6960 | 7360 |
| 2026-04-11 03:30 | 2.44 | 865 | 7800 (1977) | 89 (2004) | 2180 | 149 | 169 | 243 | 315 | 944 | 3440 | 4160 | 6960 | 7360 |
| 2026-04-11 02:30 | 2.59 | 982 | 7800 (1977) | 89 (2004) | 2180 | 149 | 169 | 243 | 315 | 944 | 3440 | 4160 | 6960 | 7360 |
| 2026-04-11 01:30 | 2.74 | 1100 | 7800 (1977) | 89 (2004) | 2180 | 149 | 169 | 243 | 315 | 944 | 3440 | 4160 | 6960 | 7360 |
| 2026-04-11 00:30 | 2.91 | 1250 | 7800 (1977) | 89 (2004) | 2180 | 149 | 169 | 243 | 315 | 944 | 3440 | 4160 | 6960 | 7360 |
| 2026-04-10 23:30 | 3.04 | 1370 | 7800 (1977) | 89 (2004) | 2180 | 149 | 169 | 243 | 315 | 944 | 3440 | 4160 | 6960 | 7360 |
| 2026-04-10 22:30 | 3.05 | 1380 | 7690 (2008) | 90 (1996) | 2140 | 112 | 154 | 207 | 357 | 901 | 3060 | 4580 | 7190 | 7340 |
| 2026-04-10 21:30 | 2.64 | 1020 | 7690 (2008) | 90 (1996) | 2140 | 112 | 154 | 207 | 357 | 901 | 3060 | 4580 | 7190 | 7340 |
| 2026-04-10 20:30 | 1.57 | 390 | 7690 (2008) | 90 (1996) | 2140 | 112 | 154 | 207 | 357 | 901 | 3060 | 4580 | 7190 | 7340 |
| 2026-04-10 19:30 | 0.98 | 200 | 7690 (2008) | 90 (1996) | 2140 | 112 | 154 | 207 | 357 | 901 | 3060 | 4580 | 7190 | 7340 |
| 2026-04-10 18:30 | 0.99 | 202 | 7690 (2008) | 90 (1996) | 2140 | 112 | 154 | 207 | 357 | 901 | 3060 | 4580 | 7190 | 7340 |
| 2026-04-10 17:30 | 1.01 | 207 | 7690 (2008) | 90 (1996) | 2140 | 112 | 154 | 207 | 357 | 901 | 3060 | 4580 | 7190 | 7340 |
| 2026-04-10 16:30 | 1.02 | 210 | 7690 (2008) | 90 (1996) | 2140 | 112 | 154 | 207 | 357 | 901 | 3060 | 4580 | 7190 | 7340 |
| 2026-04-10 15:30 | 1.03 | 213 | 7690 (2008) | 90 (1996) | 2140 | 112 | 154 | 207 | 357 | 901 | 3060 | 4580 | 7190 | 7340 |
| 2026-04-10 14:30 | 1.05 | 218 | 7690 (2008) | 90 (1996) | 2140 | 112 | 154 | 207 | 357 | 901 | 3060 | 4580 | 7190 | 7340 |
| 2026-04-10 13:30 | 1.08 | 226 | 7690 (2008) | 90 (1996) | 2140 | 112 | 154 | 207 | 357 | 901 | 3060 | 4580 | 7190 | 7340 |
| 2026-04-10 12:30 | 1.09 | 229 | 7690 (2008) | 90 (1996) | 2140 | 112 | 154 | 207 | 357 | 901 | 3060 | 4580 | 7190 | 7340 |
| 2026-04-10 11:30 | 1.12 | 238 | 7690 (2008) | 90 (1996) | 2140 | 112 | 154 | 207 | 357 | 901 | 3060 | 4580 | 7190 | 7340 |
| 2026-04-10 10:30 | 1.14 | 244 | 7690 (2008) | 90 (1996) | 2140 | 112 | 154 | 207 | 357 | 901 | 3060 | 4580 | 7190 | 7340 |
| 2026-04-10 09:30 | 1.16 | 250 | 7690 (2008) | 90 (1996) | 2140 | 112 | 154 | 207 | 357 | 901 | 3060 | 4580 | 7190 | 7340 |
| 2026-04-10 08:30 | 1.19 | 259 | 7690 (2008) | 90 (1996) | 2140 | 112 | 154 | 207 | 357 | 901 | 3060 | 4580 | 7190 | 7340 |
| 2026-04-10 07:30 | 1.22 | 268 | 7690 (2008) | 90 (1996) | 2140 | 112 | 154 | 207 | 357 | 901 | 3060 | 4580 | 7190 | 7340 |
| 2026-04-10 06:30 | 1.25 | 278 | 7690 (2008) | 90 (1996) | 2140 | 112 | 154 | 207 | 357 | 901 | 3060 | 4580 | 7190 | 7340 |
| 2026-04-10 05:30 | 1.27 | 284 | 7690 (2008) | 90 (1996) | 2140 | 112 | 154 | 207 | 357 | 901 | 3060 | 4580 | 7190 | 7340 |
| 2026-04-10 04:30 | 1.30 | 294 | 7690 (2008) | 90 (1996) | 2140 | 112 | 154 | 207 | 357 | 901 | 3060 | 4580 | 7190 | 7340 |
| 2026-04-10 03:30 | 1.32 | 300 | 7690 (2008) | 90 (1996) | 2140 | 112 | 154 | 207 | 357 | 901 | 3060 | 4580 | 7190 | 7340 |
| 2026-04-10 02:30 | 1.32 | 300 | 7690 (2008) | 90 (1996) | 2140 | 112 | 154 | 207 | 357 | 901 | 3060 | 4580 | 7190 | 7340 |
| 2026-04-10 01:30 | 1.29 | 290 | 7690 (2008) | 90 (1996) | 2140 | 112 | 154 | 207 | 357 | 901 | 3060 | 4580 | 7190 | 7340 |
| 2026-04-10 00:30 | 1.21 | 265 | 7690 (2008) | 90 (1996) | 2140 | 112 | 154 | 207 | 357 | 901 | 3060 | 4580 | 7190 | 7340 |
| 2026-04-09 23:30 | 1.09 | 229 | 7690 (2008) | 90 (1996) | 2140 | 112 | 154 | 207 | 357 | 901 | 3060 | 4580 | 7190 | 7340 |
| 2026-04-09 22:30 | 1.00 | 205 | 7640 (1973) | 91 (1996) | 2150 | 126 | 140 | 223 | 241 | 1320 | 3190 | 3670 | 6670 | 7480 |
| 2026-04-09 21:30 | 0.98 | 200 | 7640 (1973) | 91 (1996) | 2150 | 126 | 140 | 223 | 241 | 1320 | 3190 | 3670 | 6670 | 7480 |
| 2026-04-09 20:30 | 0.99 | 202 | 7640 (1973) | 91 (1996) | 2150 | 126 | 140 | 223 | 241 | 1320 | 3190 | 3670 | 6670 | 7480 |
| 2026-04-09 19:30 | 1.01 | 207 | 7640 (1973) | 91 (1996) | 2150 | 126 | 140 | 223 | 241 | 1320 | 3190 | 3670 | 6670 | 7480 |
| 2026-04-09 18:30 | 1.02 | 210 | 7640 (1973) | 91 (1996) | 2150 | 126 | 140 | 223 | 241 | 1320 | 3190 | 3670 | 6670 | 7480 |
| 2026-04-09 17:30 | 1.05 | 218 | 7640 (1973) | 91 (1996) | 2150 | 126 | 140 | 223 | 241 | 1320 | 3190 | 3670 | 6670 | 7480 |
| 2026-04-09 16:30 | 1.04 | 215 | 7640 (1973) | 91 (1996) | 2150 | 126 | 140 | 223 | 241 | 1320 | 3190 | 3670 | 6670 | 7480 |
| 2026-04-09 15:30 | 1.06 | 221 | 7640 (1973) | 91 (1996) | 2150 | 126 | 140 | 223 | 241 | 1320 | 3190 | 3670 | 6670 | 7480 |
| 2026-04-09 14:30 | 1.08 | 226 | 7640 (1973) | 91 (1996) | 2150 | 126 | 140 | 223 | 241 | 1320 | 3190 | 3670 | 6670 | 7480 |
| 2026-04-09 13:30 | 1.15 | 247 | 7640 (1973) | 91 (1996) | 2150 | 126 | 140 | 223 | 241 | 1320 | 3190 | 3670 | 6670 | 7480 |
| 2026-04-09 12:30 | 1.14 | 244 | 7640 (1973) | 91 (1996) | 2150 | 126 | 140 | 223 | 241 | 1320 | 3190 | 3670 | 6670 | 7480 |
| 2026-04-09 11:30 | 1.15 | 247 | 7640 (1973) | 91 (1996) | 2150 | 126 | 140 | 223 | 241 | 1320 | 3190 | 3670 | 6670 | 7480 |
| 2026-04-09 10:30 | 1.21 | 265 | 7640 (1973) | 91 (1996) | 2150 | 126 | 140 | 223 | 241 | 1320 | 3190 | 3670 | 6670 | 7480 |
| 2026-04-09 09:30 | 1.24 | 275 | 7640 (1973) | 91 (1996) | 2150 | 126 | 140 | 223 | 241 | 1320 | 3190 | 3670 | 6670 | 7480 |
| 2026-04-09 08:30 | 1.27 | 284 | 7640 (1973) | 91 (1996) | 2150 | 126 | 140 | 223 | 241 | 1320 | 3190 | 3670 | 6670 | 7480 |
| 2026-04-09 07:30 | 1.31 | 297 | 7640 (1973) | 91 (1996) | 2150 | 126 | 140 | 223 | 241 | 1320 | 3190 | 3670 | 6670 | 7480 |
| 2026-04-09 06:30 | 1.34 | 307 | 7640 (1973) | 91 (1996) | 2150 | 126 | 140 | 223 | 241 | 1320 | 3190 | 3670 | 6670 | 7480 |
| 2026-04-09 05:30 | 1.38 | 320 | 7640 (1973) | 91 (1996) | 2150 | 126 | 140 | 223 | 241 | 1320 | 3190 | 3670 | 6670 | 7480 |
| 2026-04-09 04:30 | 1.41 | 331 | 7640 (1973) | 91 (1996) | 2150 | 126 | 140 | 223 | 241 | 1320 | 3190 | 3670 | 6670 | 7480 |
| 2026-04-09 03:30 | 1.43 | 338 | 7640 (1973) | 91 (1996) | 2150 | 126 | 140 | 223 | 241 | 1320 | 3190 | 3670 | 6670 | 7480 |
| 2026-04-09 02:30 | 1.44 | 341 | 7640 (1973) | 91 (1996) | 2150 | 126 | 140 | 223 | 241 | 1320 | 3190 | 3670 | 6670 | 7480 |
| 2026-04-09 01:30 | 1.40 | 327 | 7640 (1973) | 91 (1996) | 2150 | 126 | 140 | 223 | 241 | 1320 | 3190 | 3670 | 6670 | 7480 |
| 2026-04-09 00:30 | 1.28 | 287 | 7640 (1973) | 91 (1996) | 2150 | 126 | 140 | 223 | 241 | 1320 | 3190 | 3670 | 6670 | 7480 |
| 2026-04-08 23:30 | 1.08 | 226 | 7640 (1973) | 91 (1996) | 2150 | 126 | 140 | 223 | 241 | 1320 | 3190 | 3670 | 6670 | 7480 |
| 2026-04-08 22:30 | 0.89 | 177 | 7430 (1977) | 94 (1996) | 2250 | 131 | 151 | 233 | 328 | 1240 | 3750 | 4870 | 6210 | 7290 |
| 2026-04-08 21:30 | 0.85 | 166 | 7430 (1977) | 94 (1996) | 2250 | 131 | 151 | 233 | 328 | 1240 | 3750 | 4870 | 6210 | 7290 |
| 2026-04-08 20:30 | 0.85 | 166 | 7430 (1977) | 94 (1996) | 2250 | 131 | 151 | 233 | 328 | 1240 | 3750 | 4870 | 6210 | 7290 |
| 2026-04-08 19:30 | 0.86 | 168 | 7430 (1977) | 94 (1996) | 2250 | 131 | 151 | 233 | 328 | 1240 | 3750 | 4870 | 6210 | 7290 |
| 2026-04-08 18:30 | 0.87 | 171 | 7430 (1977) | 94 (1996) | 2250 | 131 | 151 | 233 | 328 | 1240 | 3750 | 4870 | 6210 | 7290 |
| 2026-04-08 17:30 | 0.87 | 171 | 7430 (1977) | 94 (1996) | 2250 | 131 | 151 | 233 | 328 | 1240 | 3750 | 4870 | 6210 | 7290 |
| 2026-04-08 16:30 | 0.87 | 171 | 7430 (1977) | 94 (1996) | 2250 | 131 | 151 | 233 | 328 | 1240 | 3750 | 4870 | 6210 | 7290 |
| 2026-04-08 15:30 | 0.89 | 177 | 7430 (1977) | 94 (1996) | 2250 | 131 | 151 | 233 | 328 | 1240 | 3750 | 4870 | 6210 | 7290 |
| 2026-04-08 14:30 | 0.85 | 166 | 7430 (1977) | 94 (1996) | 2250 | 131 | 151 | 233 | 328 | 1240 | 3750 | 4870 | 6210 | 7290 |
| 2026-04-08 13:30 | 0.90 | 180 | 7430 (1977) | 94 (1996) | 2250 | 131 | 151 | 233 | 328 | 1240 | 3750 | 4870 | 6210 | 7290 |
| 2026-04-08 12:30 | 0.91 | 182 | 7430 (1977) | 94 (1996) | 2250 | 131 | 151 | 233 | 328 | 1240 | 3750 | 4870 | 6210 | 7290 |
| 2026-04-08 11:30 | 0.91 | 182 | 7430 (1977) | 94 (1996) | 2250 | 131 | 151 | 233 | 328 | 1240 | 3750 | 4870 | 6210 | 7290 |
| 2026-04-08 10:30 | 0.92 | 185 | 7430 (1977) | 94 (1996) | 2250 | 131 | 151 | 233 | 328 | 1240 | 3750 | 4870 | 6210 | 7290 |
| 2026-04-08 09:30 | 0.92 | 185 | 7430 (1977) | 94 (1996) | 2250 | 131 | 151 | 233 | 328 | 1240 | 3750 | 4870 | 6210 | 7290 |
| 2026-04-08 08:30 | 0.93 | 188 | 7430 (1977) | 94 (1996) | 2250 | 131 | 151 | 233 | 328 | 1240 | 3750 | 4870 | 6210 | 7290 |
| 2026-04-08 07:30 | 0.94 | 191 | 7430 (1977) | 94 (1996) | 2250 | 131 | 151 | 233 | 328 | 1240 | 3750 | 4870 | 6210 | 7290 |
| 2026-04-08 06:30 | 0.94 | 191 | 7430 (1977) | 94 (1996) | 2250 | 131 | 151 | 233 | 328 | 1240 | 3750 | 4870 | 6210 | 7290 |
| 2026-04-08 05:30 | 0.95 | 193 | 7430 (1977) | 94 (1996) | 2250 | 131 | 151 | 233 | 328 | 1240 | 3750 | 4870 | 6210 | 7290 |
| 2026-04-08 04:30 | 0.95 | 193 | 7430 (1977) | 94 (1996) | 2250 | 131 | 151 | 233 | 328 | 1240 | 3750 | 4870 | 6210 | 7290 |
| 2026-04-08 03:30 | 0.96 | 195 | 7430 (1977) | 94 (1996) | 2250 | 131 | 151 | 233 | 328 | 1240 | 3750 | 4870 | 6210 | 7290 |
| 2026-04-08 02:30 | 0.97 | 197 | 7430 (1977) | 94 (1996) | 2250 | 131 | 151 | 233 | 328 | 1240 | 3750 | 4870 | 6210 | 7290 |
| 2026-04-08 01:30 | 0.98 | 200 | 7430 (1977) | 94 (1996) | 2250 | 131 | 151 | 233 | 328 | 1240 | 3750 | 4870 | 6210 | 7290 |
| 2026-04-08 00:30 | 0.98 | 200 | 7430 (1977) | 94 (1996) | 2250 | 131 | 151 | 233 | 328 | 1240 | 3750 | 4870 | 6210 | 7290 |
| 2026-04-07 23:30 | 0.99 | 202 | 7430 (1977) | 94 (1996) | 2250 | 131 | 151 | 233 | 328 | 1240 | 3750 | 4870 | 6210 | 7290 |
| 2026-04-07 22:30 | 1.01 | 207 | 7420 (1977) | 94 (1976) | 2250 | 127 | 143 | 299 | 319 | 1360 | 3920 | 4360 | 6340 | 7120 |
| 2026-04-07 21:30 | 1.01 | 207 | 7420 (1977) | 94 (1976) | 2250 | 127 | 143 | 299 | 319 | 1360 | 3920 | 4360 | 6340 | 7120 |
| 2026-04-07 20:30 | 1.03 | 213 | 7420 (1977) | 94 (1976) | 2250 | 127 | 143 | 299 | 319 | 1360 | 3920 | 4360 | 6340 | 7120 |
| 2026-04-07 19:30 | 1.04 | 215 | 7420 (1977) | 94 (1976) | 2250 | 127 | 143 | 299 | 319 | 1360 | 3920 | 4360 | 6340 | 7120 |
| 2026-04-07 18:30 | 1.05 | 218 | 7420 (1977) | 94 (1976) | 2250 | 127 | 143 | 299 | 319 | 1360 | 3920 | 4360 | 6340 | 7120 |
| 2026-04-07 17:30 | 1.07 | 224 | 7420 (1977) | 94 (1976) | 2250 | 127 | 143 | 299 | 319 | 1360 | 3920 | 4360 | 6340 | 7120 |
| 2026-04-07 16:30 | 1.09 | 229 | 7420 (1977) | 94 (1976) | 2250 | 127 | 143 | 299 | 319 | 1360 | 3920 | 4360 | 6340 | 7120 |
| 2026-04-07 15:30 | 1.12 | 238 | 7420 (1977) | 94 (1976) | 2250 | 127 | 143 | 299 | 319 | 1360 | 3920 | 4360 | 6340 | 7120 |
| 2026-04-07 14:30 | 1.14 | 244 | 7420 (1977) | 94 (1976) | 2250 | 127 | 143 | 299 | 319 | 1360 | 3920 | 4360 | 6340 | 7120 |
| 2026-04-07 13:30 | 1.17 | 253 | 7420 (1977) | 94 (1976) | 2250 | 127 | 143 | 299 | 319 | 1360 | 3920 | 4360 | 6340 | 7120 |
| 2026-04-07 12:30 | 1.19 | 259 | 7420 (1977) | 94 (1976) | 2250 | 127 | 143 | 299 | 319 | 1360 | 3920 | 4360 | 6340 | 7120 |
| 2026-04-07 11:30 | 1.21 | 265 | 7420 (1977) | 94 (1976) | 2250 | 127 | 143 | 299 | 319 | 1360 | 3920 | 4360 | 6340 | 7120 |
| 2026-04-07 10:30 | 1.24 | 275 | 7420 (1977) | 94 (1976) | 2250 | 127 | 143 | 299 | 319 | 1360 | 3920 | 4360 | 6340 | 7120 |
| 2026-04-07 09:30 | 1.27 | 284 | 7420 (1977) | 94 (1976) | 2250 | 127 | 143 | 299 | 319 | 1360 | 3920 | 4360 | 6340 | 7120 |
| 2026-04-07 08:30 | 1.30 | 294 | 7420 (1977) | 94 (1976) | 2250 | 127 | 143 | 299 | 319 | 1360 | 3920 | 4360 | 6340 | 7120 |
| 2026-04-07 07:30 | 1.33 | 303 | 7420 (1977) | 94 (1976) | 2250 | 127 | 143 | 299 | 319 | 1360 | 3920 | 4360 | 6340 | 7120 |
| 2026-04-07 06:30 | 1.36 | 313 | 7420 (1977) | 94 (1976) | 2250 | 127 | 143 | 299 | 319 | 1360 | 3920 | 4360 | 6340 | 7120 |
| 2026-04-07 05:30 | 1.40 | 327 | 7420 (1977) | 94 (1976) | 2250 | 127 | 143 | 299 | 319 | 1360 | 3920 | 4360 | 6340 | 7120 |
| 2026-04-07 04:30 | 1.44 | 341 | 7420 (1977) | 94 (1976) | 2250 | 127 | 143 | 299 | 319 | 1360 | 3920 | 4360 | 6340 | 7120 |
| 2026-04-07 03:30 | 1.49 | 360 | 7420 (1977) | 94 (1976) | 2250 | 127 | 143 | 299 | 319 | 1360 | 3920 | 4360 | 6340 | 7120 |
| 2026-04-07 02:30 | 1.54 | 378 | 7420 (1977) | 94 (1976) | 2250 | 127 | 143 | 299 | 319 | 1360 | 3920 | 4360 | 6340 | 7120 |
| 2026-04-07 01:30 | 1.59 | 397 | 7420 (1977) | 94 (1976) | 2250 | 127 | 143 | 299 | 319 | 1360 | 3920 | 4360 | 6340 | 7120 |
| 2026-04-07 00:30 | 1.66 | 425 | 7420 (1977) | 94 (1976) | 2250 | 127 | 143 | 299 | 319 | 1360 | 3920 | 4360 | 6340 | 7120 |
| 2026-04-06 23:30 | 1.73 | 454 | 7420 (1977) | 94 (1976) | 2250 | 127 | 143 | 299 | 319 | 1360 | 3920 | 4360 | 6340 | 7120 |
| 2026-04-06 22:30 | 1.80 | 485 | 7440 (1977) | 85 (2004) | 2220 | 95 | 137 | 311 | 403 | 1410 | 3300 | 3790 | 6460 | 7220 |
| 2026-04-06 21:30 | 1.88 | 522 | 7440 (1977) | 85 (2004) | 2220 | 95 | 137 | 311 | 403 | 1410 | 3300 | 3790 | 6460 | 7220 |
| 2026-04-06 20:30 | 1.97 | 567 | 7440 (1977) | 85 (2004) | 2220 | 95 | 137 | 311 | 403 | 1410 | 3300 | 3790 | 6460 | 7220 |
| 2026-04-06 19:30 | 2.08 | 627 | 7440 (1977) | 85 (2004) | 2220 | 95 | 137 | 311 | 403 | 1410 | 3300 | 3790 | 6460 | 7220 |
| 2026-04-06 18:30 | 2.20 | 699 | 7440 (1977) | 85 (2004) | 2220 | 95 | 137 | 311 | 403 | 1410 | 3300 | 3790 | 6460 | 7220 |
| 2026-04-06 17:30 | 2.31 | 772 | 7440 (1977) | 85 (2004) | 2220 | 95 | 137 | 311 | 403 | 1410 | 3300 | 3790 | 6460 | 7220 |
| 2026-04-06 16:30 | 2.44 | 865 | 7440 (1977) | 85 (2004) | 2220 | 95 | 137 | 311 | 403 | 1410 | 3300 | 3790 | 6460 | 7220 |
| 2026-04-06 15:30 | 2.58 | 974 | 7440 (1977) | 85 (2004) | 2220 | 95 | 137 | 311 | 403 | 1410 | 3300 | 3790 | 6460 | 7220 |
| 2026-04-06 14:30 | 2.70 | 1070 | 7440 (1977) | 85 (2004) | 2220 | 95 | 137 | 311 | 403 | 1410 | 3300 | 3790 | 6460 | 7220 |
| 2026-04-06 13:30 | 2.78 | 1140 | 7440 (1977) | 85 (2004) | 2220 | 95 | 137 | 311 | 403 | 1410 | 3300 | 3790 | 6460 | 7220 |
| 2026-04-06 12:30 | 2.73 | 1100 | 7440 (1977) | 85 (2004) | 2220 | 95 | 137 | 311 | 403 | 1410 | 3300 | 3790 | 6460 | 7220 |
| 2026-04-06 11:30 | 2.40 | 836 | 7440 (1977) | 85 (2004) | 2220 | 95 | 137 | 311 | 403 | 1410 | 3300 | 3790 | 6460 | 7220 |
| 2026-04-06 10:30 | 1.89 | 527 | 7440 (1977) | 85 (2004) | 2220 | 95 | 137 | 311 | 403 | 1410 | 3300 | 3790 | 6460 | 7220 |
| 2026-04-06 09:30 | 1.60 | 401 | 7440 (1977) | 85 (2004) | 2220 | 95 | 137 | 311 | 403 | 1410 | 3300 | 3790 | 6460 | 7220 |
| 2026-04-06 08:30 | 1.60 | 401 | 7440 (1977) | 85 (2004) | 2220 | 95 | 137 | 311 | 403 | 1410 | 3300 | 3790 | 6460 | 7220 |
| 2026-04-06 07:30 | 1.65 | 421 | 7440 (1977) | 85 (2004) | 2220 | 95 | 137 | 311 | 403 | 1410 | 3300 | 3790 | 6460 | 7220 |
| 2026-04-06 06:30 | 1.71 | 446 | 7440 (1977) | 85 (2004) | 2220 | 95 | 137 | 311 | 403 | 1410 | 3300 | 3790 | 6460 | 7220 |
| 2026-04-06 05:30 | 1.78 | 476 | 7440 (1977) | 85 (2004) | 2220 | 95 | 137 | 311 | 403 | 1410 | 3300 | 3790 | 6460 | 7220 |
| 2026-04-06 04:30 | 1.85 | 508 | 7440 (1977) | 85 (2004) | 2220 | 95 | 137 | 311 | 403 | 1410 | 3300 | 3790 | 6460 | 7220 |
| 2026-04-06 03:30 | 1.93 | 547 | 7440 (1977) | 85 (2004) | 2220 | 95 | 137 | 311 | 403 | 1410 | 3300 | 3790 | 6460 | 7220 |
| 2026-04-06 02:30 | 2.01 | 588 | 7440 (1977) | 85 (2004) | 2220 | 95 | 137 | 311 | 403 | 1410 | 3300 | 3790 | 6460 | 7220 |
| 2026-04-06 01:30 | 2.11 | 644 | 7440 (1977) | 85 (2004) | 2220 | 95 | 137 | 311 | 403 | 1410 | 3300 | 3790 | 6460 | 7220 |
| 2026-04-06 00:30 | 2.22 | 712 | 7440 (1977) | 85 (2004) | 2220 | 95 | 137 | 311 | 403 | 1410 | 3300 | 3790 | 6460 | 7220 |
| 2026-04-05 23:30 | 2.33 | 786 | 7440 (1977) | 85 (2004) | 2220 | 95 | 137 | 311 | 403 | 1410 | 3300 | 3790 | 6460 | 7220 |
A total of 747 rows are displayed for years 1970 through 2025.